Wetterdaten: Dienstag, 02.08.2016
Datum Zeit Temp. A. Feuchte A. Luftdruck Regen Wind Richtung Richtung Sonnenschein ET UV Solar Taupunkt Windchill Windben Empfang
02.08.2016 00:00 16,0 C 83 % 1018,1 hPa 0,0 l/m 5,2 km/h (1 Bft) S-SW 204 0 min 0,000 mm 0,0 UV-I 0 W/m 13,1 C 16,0 C 6,4 km/h (2 Bft) 97,44 %
02.08.2016 00:02 15,9 C 83 % 1018,1 hPa 0,0 l/m 5,9 km/h (2 Bft) S-SW 202 0 min 0,000 mm 0,0 UV-I 0 W/m 13,0 C 15,9 C 9,7 km/h (2 Bft) 93,55 %
02.08.2016 00:04 15,9 C 83 % 1018,1 hPa 0,0 l/m 5,3 km/h (1 Bft) S-SW 195 0 min 0,000 mm 0,0 UV-I 0 W/m 13,0 C 15,9 C 6,4 km/h (2 Bft) 98,11 %
02.08.2016 00:06 15,9 C 84 % 1018,2 hPa 0,0 l/m 3,9 km/h (1 Bft) S 188 0 min 0,000 mm 0,0 UV-I 0 W/m 13,2 C 15,9 C 6,4 km/h (2 Bft) 98,08 %
02.08.2016 00:08 15,9 C 84 % 1018,2 hPa 0,0 l/m 5,5 km/h (1 Bft) S 178 0 min 0,000 mm 0,0 UV-I 0 W/m 13,2 C 15,9 C 8,0 km/h (2 Bft) 97,87 %
02.08.2016 00:10 15,9 C 84 % 1018,2 hPa 0,0 l/m 5,1 km/h (1 Bft) S 182 0 min 0,000 mm 0,0 UV-I 0 W/m 13,2 C 15,9 C 8,0 km/h (2 Bft) 96,00 %
02.08.2016 00:12 15,8 C 84 % 1018,2 hPa 0,0 l/m 4,2 km/h (1 Bft) S 177 0 min 0,000 mm 0,0 UV-I 0 W/m 13,1 C 15,8 C 6,4 km/h (2 Bft) 100,00 %
02.08.2016 00:14 15,8 C 84 % 1018,2 hPa 0,0 l/m 3,0 km/h (1 Bft) S 173 0 min 0,000 mm 0,0 UV-I 0 W/m 13,1 C 15,8 C 4,8 km/h (1 Bft) 96,00 %
02.08.2016 00:16 15,8 C 84 % 1018,3 hPa 0,0 l/m 3,4 km/h (1 Bft) S 175 0 min 0,000 mm 0,0 UV-I 0 W/m 13,1 C 15,8 C 4,8 km/h (1 Bft) 97,87 %
02.08.2016 00:18 15,7 C 84 % 1018,3 hPa 0,0 l/m 4,8 km/h (1 Bft) S-SW 194 0 min 0,000 mm 0,0 UV-I 0 W/m 13,0 C 15,7 C 6,4 km/h (2 Bft) 97,56 %
02.08.2016 00:20 15,7 C 84 % 1018,3 hPa 0,0 l/m 5,6 km/h (1 Bft) S 182 0 min 0,000 mm 0,0 UV-I 0 W/m 13,0 C 15,7 C 9,7 km/h (2 Bft) 98,00 %
02.08.2016 00:22 15,7 C 84 % 1018,3 hPa 0,0 l/m 5,1 km/h (1 Bft) S 187 0 min 0,000 mm 0,0 UV-I 0 W/m 13,0 C 15,7 C 8,0 km/h (2 Bft) 97,87 %
02.08.2016 00:24 15,6 C 85 % 1018,3 hPa 0,0 l/m 4,4 km/h (1 Bft) S 184 0 min 0,000 mm 0,0 UV-I 0 W/m 13,1 C 15,6 C 6,4 km/h (2 Bft) 97,14 %
02.08.2016 00:26 15,6 C 85 % 1018,3 hPa 0,0 l/m 3,9 km/h (1 Bft) S 180 0 min 0,000 mm 0,0 UV-I 0 W/m 13,1 C 15,6 C 6,4 km/h (2 Bft) 98,46 %
02.08.2016 00:28 15,6 C 85 % 1018,2 hPa 0,0 l/m 5,6 km/h (1 Bft) S-SO 168 0 min 0,000 mm 0,0 UV-I 0 W/m 13,1 C 15,6 C 8,0 km/h (2 Bft) 100,00 %
02.08.2016 00:30 15,6 C 85 % 1018,2 hPa 0,0 l/m 5,6 km/h (1 Bft) S 180 0 min 0,000 mm 0,0 UV-I 0 W/m 13,1 C 15,6 C 8,0 km/h (2 Bft) 100,00 %
02.08.2016 00:32 15,5 C 85 % 1018,2 hPa 0,0 l/m 5,7 km/h (1 Bft) S 173 0 min 0,000 mm 0,0 UV-I 0 W/m 13,0 C 15,5 C 8,0 km/h (2 Bft) 97,56 %
02.08.2016 00:34 15,5 C 85 % 1018,2 hPa 0,0 l/m 7,0 km/h (2 Bft) S 176 0 min 0,000 mm 0,0 UV-I 0 W/m 13,0 C 15,2 C 9,7 km/h (2 Bft) 100,00 %
02.08.2016 00:36 15,5 C 85 % 1018,2 hPa 0,0 l/m 6,7 km/h (2 Bft) S 179 0 min 0,000 mm 0,0 UV-I 0 W/m 13,0 C 15,3 C 9,7 km/h (2 Bft) 100,00 %
02.08.2016 00:38 15,4 C 85 % 1018,2 hPa 0,0 l/m 5,4 km/h (1 Bft) S 185 0 min 0,000 mm 0,0 UV-I 0 W/m 12,9 C 15,4 C 8,0 km/h (2 Bft) 100,00 %
02.08.2016 00:40 15,4 C 85 % 1018,2 hPa 0,0 l/m 4,9 km/h (1 Bft) S 186 0 min 0,000 mm 0,0 UV-I 0 W/m 12,9 C 15,4 C 8,0 km/h (2 Bft) 100,00 %
02.08.2016 00:42 15,4 C 85 % 1018,2 hPa 0,0 l/m 4,9 km/h (1 Bft) S-SW 205 0 min 0,000 mm 0,0 UV-I 0 W/m 12,9 C 15,4 C 6,4 km/h (2 Bft) 100,00 %
02.08.2016 00:44 15,4 C 85 % 1018,2 hPa 0,0 l/m 4,5 km/h (1 Bft) S 174 0 min 0,000 mm 0,0 UV-I 0 W/m 12,9 C 15,4 C 6,4 km/h (2 Bft) 100,00 %
02.08.2016 00:46 15,3 C 86 % 1018,2 hPa 0,0 l/m 5,9 km/h (2 Bft) S 178 0 min 0,000 mm 0,0 UV-I 0 W/m 13,0 C 15,3 C 9,7 km/h (2 Bft) 98,00 %
02.08.2016 00:48 15,3 C 86 % 1018,2 hPa 0,0 l/m 5,4 km/h (1 Bft) S-SW 196 0 min 0,000 mm 0,0 UV-I 0 W/m 13,0 C 15,3 C 6,4 km/h (2 Bft) 100,00 %
02.08.2016 00:50 15,2 C 86 % 1018,1 hPa 0,0 l/m 3,8 km/h (1 Bft) S 184 0 min 0,000 mm 0,0 UV-I 0 W/m 12,9 C 15,2 C 6,4 km/h (2 Bft) 97,87 %
02.08.2016 00:52 15,2 C 86 % 1018,2 hPa 0,0 l/m 4,1 km/h (1 Bft) S 186 0 min 0,000 mm 0,0 UV-I 0 W/m 12,9 C 15,2 C 6,4 km/h (2 Bft) 100,00 %
02.08.2016 00:54 15,2 C 86 % 1018,2 hPa 0,0 l/m 4,4 km/h (1 Bft) S 184 0 min 0,000 mm 0,0 UV-I 0 W/m 12,9 C 15,2 C 6,4 km/h (2 Bft) 100,00 %
02.08.2016 00:56 15,1 C 86 % 1018,2 hPa 0,0 l/m 5,0 km/h (1 Bft) S 181 0 min 0,000 mm 0,0 UV-I 0 W/m 12,8 C 15,1 C 6,4 km/h (2 Bft) 100,00 %
02.08.2016 00:58 15,1 C 86 % 1018,2 hPa 0,0 l/m 4,6 km/h (1 Bft) S 182 0 min 0,000 mm 0,0 UV-I 0 W/m 12,8 C 15,1 C 6,4 km/h (2 Bft) 98,11 %
02.08.2016 01:00 15,1 C 86 % 1018,2 hPa 0,0 l/m 4,4 km/h (1 Bft) S 177 0 min 0,025 mm 0,0 UV-I 0 W/m 12,8 C 15,1 C 6,4 km/h (2 Bft) 97,87 %
02.08.2016 01:02 15,1 C 87 % 1018,2 hPa 0,0 l/m 5,6 km/h (1 Bft) S-SW 199 0 min 0,000 mm 0,0 UV-I 0 W/m 13,0 C 15,1 C 8,0 km/h (2 Bft) 100,00 %
02.08.2016 01:04 15,0 C 87 % 1018,2 hPa 0,0 l/m 5,7 km/h (1 Bft) S 187 0 min 0,000 mm 0,0 UV-I 0 W/m 12,9 C 15,0 C 8,0 km/h (2 Bft) 100,00 %
02.08.2016 01:06 15,0 C 87 % 1018,2 hPa 0,0 l/m 4,4 km/h (1 Bft) S 188 0 min 0,000 mm 0,0 UV-I 0 W/m 12,9 C 15,0 C 6,4 km/h (2 Bft) 100,00 %
02.08.2016 01:08 14,9 C 87 % 1018,2 hPa 0,0 l/m 4,9 km/h (1 Bft) S 184 0 min 0,000 mm 0,0 UV-I 0 W/m 12,8 C 14,9 C 6,4 km/h (2 Bft) 100,00 %
02.08.2016 01:10 14,9 C 87 % 1018,2 hPa 0,0 l/m 5,9 km/h (2 Bft) S-SO 166 0 min 0,000 mm 0,0 UV-I 0 W/m 12,8 C 14,9 C 8,0 km/h (2 Bft) 100,00 %
02.08.2016 01:12 14,9 C 87 % 1018,2 hPa 0,0 l/m 5,5 km/h (1 Bft) S 191 0 min 0,000 mm 0,0 UV-I 0 W/m 12,8 C 14,9 C 8,0 km/h (2 Bft) 100,00 %
02.08.2016 01:14 14,9 C 87 % 1018,2 hPa 0,0 l/m 5,8 km/h (2 Bft) S-SW 193 0 min 0,000 mm 0,0 UV-I 0 W/m 12,8 C 14,9 C 9,7 km/h (2 Bft) 96,00 %
02.08.2016 01:16 14,9 C 87 % 1018,2 hPa 0,0 l/m 6,1 km/h (2 Bft) S-SW 212 0 min 0,000 mm 0,0 UV-I 0 W/m 12,8 C 14,9 C 9,7 km/h (2 Bft) 100,00 %
02.08.2016 01:18 14,9 C 87 % 1018,2 hPa 0,0 l/m 5,4 km/h (1 Bft) S 187 0 min 0,000 mm 0,0 UV-I 0 W/m 12,8 C 14,9 C 6,4 km/h (2 Bft) 100,00 %
02.08.2016 01:20 14,9 C 87 % 1018,1 hPa 0,0 l/m 4,4 km/h (1 Bft) S 186 0 min 0,000 mm 0,0 UV-I 0 W/m 12,8 C 14,9 C 6,4 km/h (2 Bft) 100,00 %
02.08.2016 01:22 14,9 C 87 % 1018,1 hPa 0,0 l/m 4,7 km/h (1 Bft) S-SW 198 0 min 0,000 mm 0,0 UV-I 0 W/m 12,8 C 14,9 C 8,0 km/h (2 Bft) 100,00 %
02.08.2016 01:24 14,8 C 87 % 1018,1 hPa 0,0 l/m 5,1 km/h (1 Bft) S 184 0 min 0,000 mm 0,0 UV-I 0 W/m 12,7 C 14,8 C 9,7 km/h (2 Bft) 100,00 %
02.08.2016 01:26 14,8 C 87 % 1018,1 hPa 0,0 l/m 4,4 km/h (1 Bft) S-SW 200 0 min 0,000 mm 0,0 UV-I 0 W/m 12,7 C 14,8 C 8,0 km/h (2 Bft) 100,00 %
02.08.2016 01:28 14,8 C 86 % 1018,0 hPa 0,0 l/m 4,8 km/h (1 Bft) S 172 0 min 0,000 mm 0,0 UV-I 0 W/m 12,5 C 14,8 C 8,0 km/h (2 Bft) 98,21 %
02.08.2016 01:30 14,8 C 86 % 1018,1 hPa 0,0 l/m 5,1 km/h (1 Bft) S-SO 167 0 min 0,000 mm 0,0 UV-I 0 W/m 12,5 C 14,8 C 8,0 km/h (2 Bft) 100,00 %
02.08.2016 01:32 14,8 C 86 % 1018,0 hPa 0,0 l/m 4,4 km/h (1 Bft) S 184 0 min 0,000 mm 0,0 UV-I 0 W/m 12,5 C 14,8 C 6,4 km/h (2 Bft) 100,00 %
02.08.2016 01:34 14,8 C 86 % 1018,1 hPa 0,0 l/m 5,2 km/h (1 Bft) S 188 0 min 0,000 mm 0,0 UV-I 0 W/m 12,5 C 14,8 C 8,0 km/h (2 Bft) 100,00 %
02.08.2016 01:36 14,8 C 86 % 1018,1 hPa 0,0 l/m 5,0 km/h (1 Bft) S 181 0 min 0,000 mm 0,0 UV-I 0 W/m 12,5 C 14,8 C 8,0 km/h (2 Bft) 100,00 %
02.08.2016 01:38 14,8 C 86 % 1018,1 hPa 0,0 l/m 4,5 km/h (1 Bft) S-SW 192 0 min 0,000 mm 0,0 UV-I 0 W/m 12,5 C 14,8 C 6,4 km/h (2 Bft) 100,00 %
02.08.2016 01:40 14,7 C 87 % 1018,0 hPa 0,0 l/m 4,6 km/h (1 Bft) S-SW 198 0 min 0,000 mm 0,0 UV-I 0 W/m 12,6 C 14,7 C 8,0 km/h (2 Bft) 97,37 %
02.08.2016 01:42 14,7 C 87 % 1018,0 hPa 0,0 l/m 4,3 km/h (1 Bft) S 186 0 min 0,000 mm 0,0 UV-I 0 W/m 12,6 C 14,7 C 6,4 km/h (2 Bft) 100,00 %
02.08.2016 01:44 14,7 C 87 % 1018,0 hPa 0,0 l/m 4,4 km/h (1 Bft) S 179 0 min 0,000 mm 0,0 UV-I 0 W/m 12,6 C 14,7 C 6,4 km/h (2 Bft) 100,00 %
02.08.2016 01:46 14,6 C 87 % 1018,0 hPa 0,0 l/m 4,2 km/h (1 Bft) S 180 0 min 0,000 mm 0,0 UV-I 0 W/m 12,5 C 14,6 C 6,4 km/h (2 Bft) 96,00 %
02.08.2016 01:48 14,6 C 87 % 1018,0 hPa 0,0 l/m 3,4 km/h (1 Bft) S 180 0 min 0,000 mm 0,0 UV-I 0 W/m 12,5 C 14,6 C 4,8 km/h (1 Bft) 94,74 %
02.08.2016 01:50 14,5 C 87 % 1018,0 hPa 0,0 l/m 3,7 km/h (1 Bft) S 180 0 min 0,000 mm 0,0 UV-I 0 W/m 12,4 C 14,5 C 4,8 km/h (1 Bft) 97,87 %
02.08.2016 01:52 14,4 C 87 % 1018,0 hPa 0,0 l/m 3,1 km/h (1 Bft) S 180 0 min 0,000 mm 0,0 UV-I 0 W/m 12,3 C 14,4 C 4,8 km/h (1 Bft) 95,24 %
02.08.2016 01:54 14,4 C 88 % 1018,0 hPa 0,0 l/m 3,7 km/h (1 Bft) S 180 0 min 0,000 mm 0,0 UV-I 0 W/m 12,4 C 14,4 C 4,8 km/h (1 Bft) 96,15 %
02.08.2016 01:56 14,4 C 88 % 1018,0 hPa 0,0 l/m 3,2 km/h (1 Bft) S 180 0 min 0,000 mm 0,0 UV-I 0 W/m 12,4 C 14,4 C 4,8 km/h (1 Bft) 97,92 %
02.08.2016 01:58 14,4 C 88 % 1018,0 hPa 0,0 l/m 3,5 km/h (1 Bft) S 180 0 min 0,000 mm 0,0 UV-I 0 W/m 12,4 C 14,4 C 4,8 km/h (1 Bft) 96,15 %
02.08.2016 02:00 14,3 C 88 % 1018,0 hPa 0,0 l/m 4,6 km/h (1 Bft) S 189 0 min 0,000 mm 0,0 UV-I 0 W/m 12,3 C 14,3 C 6,4 km/h (2 Bft) 97,92 %
02.08.2016 02:02 14,3 C 88 % 1017,9 hPa 0,0 l/m 4,1 km/h (1 Bft) S 186 0 min 0,000 mm 0,0 UV-I 0 W/m 12,3 C 14,3 C 6,4 km/h (2 Bft) 97,87 %
02.08.2016 02:04 14,3 C 88 % 1018,0 hPa 0,0 l/m 4,5 km/h (1 Bft) S 183 0 min 0,000 mm 0,0 UV-I 0 W/m 12,3 C 14,3 C 6,4 km/h (2 Bft) 95,65 %
02.08.2016 02:06 14,3 C 88 % 1018,0 hPa 0,0 l/m 4,4 km/h (1 Bft) S-SW 204 0 min 0,000 mm 0,0 UV-I 0 W/m 12,3 C 14,3 C 6,4 km/h (2 Bft) 98,46 %
02.08.2016 02:08 14,3 C 88 % 1017,9 hPa 0,0 l/m 4,3 km/h (1 Bft) S-SW 204 0 min 0,000 mm 0,0 UV-I 0 W/m 12,3 C 14,3 C 6,4 km/h (2 Bft) 97,87 %
02.08.2016 02:10 14,3 C 88 % 1018,0 hPa 0,0 l/m 4,0 km/h (1 Bft) S 190 0 min 0,000 mm 0,0 UV-I 0 W/m 12,3 C 14,3 C 4,8 km/h (1 Bft) 98,11 %
02.08.2016 02:12 14,2 C 87 % 1017,9 hPa 0,0 l/m 3,6 km/h (1 Bft) S 190 0 min 0,000 mm 0,0 UV-I 0 W/m 12,1 C 14,2 C 4,8 km/h (1 Bft) 97,56 %
02.08.2016 02:14 14,2 C 88 % 1018,0 hPa 0,0 l/m 3,9 km/h (1 Bft) S 190 0 min 0,000 mm 0,0 UV-I 0 W/m 12,2 C 14,2 C 4,8 km/h (1 Bft) 95,45 %
02.08.2016 02:16 14,2 C 88 % 1018,0 hPa 0,0 l/m 3,6 km/h (1 Bft) S 190 0 min 0,000 mm 0,0 UV-I 0 W/m 12,2 C 14,2 C 6,4 km/h (2 Bft) 95,74 %
02.08.2016 02:18 14,1 C 88 % 1018,0 hPa 0,0 l/m 3,1 km/h (1 Bft) S 190 0 min 0,000 mm 0,0 UV-I 0 W/m 12,1 C 14,1 C 4,8 km/h (1 Bft) 100,00 %
02.08.2016 02:20 14,1 C 88 % 1018,0 hPa 0,0 l/m 3,9 km/h (1 Bft) S 190 0 min 0,000 mm 0,0 UV-I 0 W/m 12,1 C 14,1 C 4,8 km/h (1 Bft) 98,00 %
02.08.2016 02:22 14,1 C 88 % 1018,0 hPa 0,0 l/m 3,2 km/h (1 Bft) S 190 0 min 0,000 mm 0,0 UV-I 0 W/m 12,1 C 14,1 C 6,4 km/h (2 Bft) 100,00 %
02.08.2016 02:24 14,1 C 88 % 1018,0 hPa 0,0 l/m 3,4 km/h (1 Bft) S 190 0 min 0,000 mm 0,0 UV-I 0 W/m 12,1 C 14,1 C 4,8 km/h (1 Bft) 100,00 %
02.08.2016 02:26 14,1 C 88 % 1018,0 hPa 0,0 l/m 3,4 km/h (1 Bft) S 190 0 min 0,000 mm 0,0 UV-I 0 W/m 12,1 C 14,1 C 4,8 km/h (1 Bft) 100,00 %
02.08.2016 02:28 14,0 C 88 % 1018,0 hPa 0,0 l/m 3,5 km/h (1 Bft) S 190 0 min 0,000 mm 0,0 UV-I 0 W/m 12,0 C 14,0 C 4,8 km/h (1 Bft) 100,00 %
02.08.2016 02:30 14,0 C 88 % 1018,0 hPa 0,0 l/m 4,6 km/h (1 Bft) S-SW 194 0 min 0,000 mm 0,0 UV-I 0 W/m 12,0 C 14,0 C 6,4 km/h (2 Bft) 96,23 %
02.08.2016 02:32 13,9 C 88 % 1018,0 hPa 0,0 l/m 4,6 km/h (1 Bft) S-SW 198 0 min 0,000 mm 0,0 UV-I 0 W/m 11,9 C 13,9 C 6,4 km/h (2 Bft) 100,00 %
02.08.2016 02:34 13,9 C 88 % 1018,0 hPa 0,0 l/m 4,2 km/h (1 Bft) S-SW 198 0 min 0,000 mm 0,0 UV-I 0 W/m 11,9 C 13,9 C 6,4 km/h (2 Bft) 100,00 %
02.08.2016 02:36 13,8 C 88 % 1018,0 hPa 0,0 l/m 3,3 km/h (1 Bft) S-SW 198 0 min 0,000 mm 0,0 UV-I 0 W/m 11,8 C 13,8 C 4,8 km/h (1 Bft) 100,00 %
02.08.2016 02:38 13,8 C 89 % 1017,9 hPa 0,0 l/m 3,7 km/h (1 Bft) S-SW 198 0 min 0,000 mm 0,0 UV-I 0 W/m 12,0 C 13,8 C 4,8 km/h (1 Bft) 100,00 %
02.08.2016 02:40 13,8 C 89 % 1017,9 hPa 0,0 l/m 3,6 km/h (1 Bft) S-SW 198 0 min 0,000 mm 0,0 UV-I 0 W/m 12,0 C 13,8 C 4,8 km/h (1 Bft) 97,44 %
02.08.2016 02:42 13,8 C 89 % 1018,0 hPa 0,0 l/m 3,0 km/h (1 Bft) S-SW 198 0 min 0,000 mm 0,0 UV-I 0 W/m 12,0 C 13,8 C 4,8 km/h (1 Bft) 100,00 %
02.08.2016 02:44 13,8 C 89 % 1018,0 hPa 0,0 l/m 1,7 km/h (1 Bft) S-SW 198 0 min 0,000 mm 0,0 UV-I 0 W/m 12,0 C 13,8 C 3,2 km/h (1 Bft) 97,87 %
02.08.2016 02:46 13,8 C 89 % 1018,0 hPa 0,0 l/m 1,9 km/h (1 Bft) S-SW 198 0 min 0,000 mm 0,0 UV-I 0 W/m 12,0 C 13,8 C 3,2 km/h (1 Bft) 100,00 %
02.08.2016 02:48 13,8 C 89 % 1017,9 hPa 0,0 l/m 2,6 km/h (1 Bft) S-SW 198 0 min 0,000 mm 0,0 UV-I 0 W/m 12,0 C 13,8 C 3,2 km/h (1 Bft) 100,00 %
02.08.2016 02:50 13,8 C 89 % 1017,9 hPa 0,0 l/m 2,6 km/h (1 Bft) S-SW 198 0 min 0,000 mm 0,0 UV-I 0 W/m 12,0 C 13,8 C 3,2 km/h (1 Bft) 100,00 %
02.08.2016 02:52 13,8 C 89 % 1017,9 hPa 0,0 l/m 2,6 km/h (1 Bft) S-SW 198 0 min 0,000 mm 0,0 UV-I 0 W/m 12,0 C 13,8 C 3,2 km/h (1 Bft) 100,00 %
02.08.2016 02:54 13,8 C 89 % 1017,9 hPa 0,0 l/m 2,8 km/h (1 Bft) S-SW 198 0 min 0,000 mm 0,0 UV-I 0 W/m 12,0 C 13,8 C 4,8 km/h (1 Bft) 100,00 %
02.08.2016 02:56 13,7 C 89 % 1017,9 hPa 0,0 l/m 1,6 km/h (1 Bft) S-SW 198 0 min 0,000 mm 0,0 UV-I 0 W/m 11,9 C 13,7 C 3,2 km/h (1 Bft) 98,00 %
02.08.2016 02:58 13,7 C 89 % 1017,9 hPa 0,0 l/m 1,8 km/h (1 Bft) S-SW 198 0 min 0,000 mm 0,0 UV-I 0 W/m 11,9 C 13,7 C 3,2 km/h (1 Bft) 100,00 %
02.08.2016 03:00 13,7 C 89 % 1017,9 hPa 0,0 l/m 1,4 km/h (1 Bft) S-SW 198 0 min 0,000 mm 0,0 UV-I 0 W/m 11,9 C 13,7 C 1,6 km/h (1 Bft) 100,00 %
02.08.2016 03:02 13,6 C 89 % 1017,9 hPa 0,0 l/m 1,7 km/h (1 Bft) S-SW 198 0 min 0,000 mm 0,0 UV-I 0 W/m 11,8 C 13,6 C 3,2 km/h (1 Bft) 100,00 %
02.08.2016 03:04 13,6 C 89 % 1017,9 hPa 0,0 l/m 1,3 km/h (1 Bft) S-SW 198 0 min 0,000 mm 0,0 UV-I 0 W/m 11,8 C 13,6 C 3,2 km/h (1 Bft) 100,00 %
02.08.2016 03:06 13,6 C 89 % 1017,9 hPa 0,0 l/m 2,0 km/h (1 Bft) S-SW 198 0 min 0,000 mm 0,0 UV-I 0 W/m 11,8 C 13,6 C 3,2 km/h (1 Bft) 100,00 %
02.08.2016 03:08 13,6 C 89 % 1017,8 hPa 0,0 l/m 1,7 km/h (1 Bft) S-SW 198 0 min 0,000 mm 0,0 UV-I 0 W/m 11,8 C 13,6 C 3,2 km/h (1 Bft) 97,87 %
02.08.2016 03:10 13,6 C 89 % 1017,8 hPa 0,0 l/m 1,7 km/h (1 Bft) S-SW 198 0 min 0,000 mm 0,0 UV-I 0 W/m 11,8 C 13,6 C 3,2 km/h (1 Bft) 94,74 %
02.08.2016 03:12 13,5 C 89 % 1017,8 hPa 0,0 l/m 1,9 km/h (1 Bft) S-SW 198 0 min 0,000 mm 0,0 UV-I 0 W/m 11,7 C 13,5 C 3,2 km/h (1 Bft) 100,00 %
02.08.2016 03:14 13,5 C 89 % 1017,7 hPa 0,0 l/m 1,5 km/h (1 Bft) S-SW 198 0 min 0,000 mm 0,0 UV-I 0 W/m 11,7 C 13,5 C 3,2 km/h (1 Bft) 100,00 %
02.08.2016 03:16 13,4 C 89 % 1017,7 hPa 0,0 l/m 0,9 km/h (0 Bft) S-SW 198 0 min 0,000 mm 0,0 UV-I 0 W/m 11,6 C 13,4 C 3,2 km/h (1 Bft) 100,00 %
02.08.2016 03:18 13,3 C 89 % 1017,7 hPa 0,0 l/m 0,0 km/h (0 Bft) S-SW 198 0 min 0,000 mm 0,0 UV-I 0 W/m 11,5 C 13,3 C 0,0 km/h (0 Bft) 100,00 %
02.08.2016 03:20 13,3 C 90 % 1017,8 hPa 0,0 l/m 0,0 km/h (0 Bft) S-SW 198 0 min 0,000 mm 0,0 UV-I 0 W/m 11,7 C 13,3 C 0,0 km/h (0 Bft) 97,87 %
02.08.2016 03:22 13,2 C 90 % 1017,7 hPa 0,0 l/m 0,0 km/h (0 Bft) S-SW 198 0 min 0,000 mm 0,0 UV-I 0 W/m 11,6 C 13,2 C 0,0 km/h (0 Bft) 100,00 %
02.08.2016 03:24 13,2 C 91 % 1017,8 hPa 0,0 l/m 0,0 km/h (0 Bft) S-SW 198 0 min 0,000 mm 0,0 UV-I 0 W/m 11,8 C 13,2 C 0,0 km/h (0 Bft) 100,00 %
02.08.2016 03:26 13,2 C 91 % 1017,8 hPa 0,0 l/m 0,3 km/h (0 Bft) S-SW 198 0 min 0,000 mm 0,0 UV-I 0 W/m 11,8 C 13,2 C 1,6 km/h (1 Bft) 100,00 %
02.08.2016 03:28 13,2 C 91 % 1017,8 hPa 0,0 l/m 1,1 km/h (1 Bft) S-SW 198 0 min 0,000 mm 0,0 UV-I 0 W/m 11,8 C 13,2 C 3,2 km/h (1 Bft) 97,87 %
02.08.2016 03:30 13,1 C 91 % 1017,8 hPa 0,0 l/m 0,3 km/h (0 Bft) S-SW 198 0 min 0,000 mm 0,0 UV-I 0 W/m 11,7 C 13,1 C 1,6 km/h (1 Bft) 98,00 %
02.08.2016 03:32 13,1 C 91 % 1017,8 hPa 0,0 l/m 0,0 km/h (0 Bft) S-SW 198 0 min 0,000 mm 0,0 UV-I 0 W/m 11,7 C 13,1 C 1,6 km/h (1 Bft) 100,00 %
02.08.2016 03:34 13,1 C 91 % 1017,8 hPa 0,0 l/m 0,0 km/h (0 Bft) S-SW 198 0 min 0,000 mm 0,0 UV-I 0 W/m 11,7 C 13,1 C 0,0 km/h (0 Bft) 97,87 %
02.08.2016 03:36 13,0 C 92 % 1017,8 hPa 0,0 l/m 0,0 km/h (0 Bft) S-SW 198 0 min 0,000 mm 0,0 UV-I 0 W/m 11,7 C 13,0 C 1,6 km/h (1 Bft) 100,00 %
02.08.2016 03:38 12,9 C 92 % 1017,9 hPa 0,0 l/m 0,6 km/h (0 Bft) S-SW 198 0 min 0,000 mm 0,0 UV-I 0 W/m 11,6 C 12,9 C 1,6 km/h (1 Bft) 100,00 %
02.08.2016 03:40 12,9 C 92 % 1017,9 hPa 0,0 l/m 0,4 km/h (0 Bft) S-SW 198 0 min 0,000 mm 0,0 UV-I 0 W/m 11,6 C 12,9 C 1,6 km/h (1 Bft) 100,00 %
02.08.2016 03:42 12,9 C 92 % 1017,9 hPa 0,0 l/m 0,1 km/h (0 Bft) S-SW 198 0 min 0,000 mm 0,0 UV-I 0 W/m 11,6 C 12,9 C 1,6 km/h (1 Bft) 98,00 %
02.08.2016 03:44 12,8 C 92 % 1017,9 hPa 0,0 l/m 0,0 km/h (0 Bft) S-SW 198 0 min 0,000 mm 0,0 UV-I 0 W/m 11,5 C 12,8 C 0,0 km/h (0 Bft) 100,00 %
02.08.2016 03:46 12,8 C 92 % 1017,9 hPa 0,0 l/m 0,0 km/h (0 Bft) S-SW 198 0 min 0,000 mm 0,0 UV-I 0 W/m 11,5 C 12,8 C 0,0 km/h (0 Bft) 100,00 %
02.08.2016 03:48 12,7 C 92 % 1017,9 hPa 0,0 l/m 0,0 km/h (0 Bft) S-SW 198 0 min 0,000 mm 0,0 UV-I 0 W/m 11,4 C 12,7 C 0,0 km/h (0 Bft) 98,00 %
02.08.2016 03:50 12,7 C 92 % 1017,9 hPa 0,0 l/m 0,0 km/h (0 Bft) S-SW 198 0 min 0,000 mm 0,0 UV-I 0 W/m 11,4 C 12,7 C 1,6 km/h (1 Bft) 97,87 %
02.08.2016 03:52 12,6 C 92 % 1018,0 hPa 0,0 l/m 0,0 km/h (0 Bft) S-SW 198 0 min 0,000 mm 0,0 UV-I 0 W/m 11,3 C 12,6 C 0,0 km/h (0 Bft) 97,62 %
02.08.2016 03:54 12,7 C 92 % 1017,9 hPa 0,0 l/m 0,2 km/h (0 Bft) S-SW 198 0 min 0,000 mm 0,0 UV-I 0 W/m 11,4 C 12,7 C 1,6 km/h (1 Bft) 97,37 %
02.08.2016 03:56 12,7 C 92 % 1017,9 hPa 0,0 l/m 0,0 km/h (0 Bft) S-SW 198 0 min 0,000 mm 0,0 UV-I 0 W/m 11,4 C 12,7 C 0,0 km/h (0 Bft) 98,36 %
02.08.2016 03:58 12,8 C 92 % 1018,0 hPa 0,0 l/m 0,0 km/h (0 Bft) S-SW 198 0 min 0,000 mm 0,0 UV-I 0 W/m 11,5 C 12,8 C 0,0 km/h (0 Bft) 95,83 %
02.08.2016 04:00 12,8 C 92 % 1018,0 hPa 0,0 l/m 0,0 km/h (0 Bft) S-SW 198 0 min 0,000 mm 0,0 UV-I 0 W/m 11,5 C 12,8 C 0,0 km/h (0 Bft) 95,74 %
02.08.2016 04:02 12,8 C 92 % 1018,0 hPa 0,0 l/m 0,0 km/h (0 Bft) S-SW 198 0 min 0,000 mm 0,0 UV-I 0 W/m 11,5 C 12,8 C 0,0 km/h (0 Bft) 96,43 %
02.08.2016 04:04 12,8 C 92 % 1018,0 hPa 0,0 l/m 0,0 km/h (0 Bft) S-SW 198 0 min 0,000 mm 0,0 UV-I 0 W/m 11,5 C 12,8 C 0,0 km/h (0 Bft) 95,74 %
02.08.2016 04:06 12,8 C 91 % 1017,9 hPa 0,0 l/m 0,0 km/h (0 Bft) S-SW 198 0 min 0,000 mm 0,0 UV-I 0 W/m 11,4 C 12,8 C 0,0 km/h (0 Bft) 96,00 %
02.08.2016 04:08 12,7 C 91 % 1017,9 hPa 0,0 l/m 0,4 km/h (0 Bft) S-SW 198 0 min 0,000 mm 0,0 UV-I 0 W/m 11,3 C 12,7 C 1,6 km/h (1 Bft) 96,23 %
02.08.2016 04:10 12,6 C 91 % 1017,9 hPa 0,0 l/m 2,0 km/h (1 Bft) S-SW 198 0 min 0,000 mm 0,0 UV-I 0 W/m 11,2 C 12,6 C 3,2 km/h (1 Bft) 91,30 %
02.08.2016 04:12 12,6 C 92 % 1017,9 hPa 0,0 l/m 1,3 km/h (1 Bft) S-SW 198 0 min 0,000 mm 0,0 UV-I 0 W/m 11,3 C 12,6 C 1,6 km/h (1 Bft) 98,39 %
02.08.2016 04:14 12,5 C 92 % 1017,8 hPa 0,0 l/m 1,6 km/h (1 Bft) S-SW 198 0 min 0,000 mm 0,0 UV-I 0 W/m 11,2 C 12,5 C 3,2 km/h (1 Bft) 96,00 %
02.08.2016 04:16 12,4 C 92 % 1017,8 hPa 0,0 l/m 1,7 km/h (1 Bft) S-SW 198 0 min 0,000 mm 0,0 UV-I 0 W/m 11,1 C 12,4 C 3,2 km/h (1 Bft) 93,62 %
02.08.2016 04:18 12,4 C 92 % 1017,9 hPa 0,0 l/m 1,6 km/h (1 Bft) S-SW 198 0 min 0,000 mm 0,0 UV-I 0 W/m 11,1 C 12,4 C 3,2 km/h (1 Bft) 96,00 %
02.08.2016 04:20 12,3 C 92 % 1017,9 hPa 0,0 l/m 0,5 km/h (0 Bft) S-SW 198 0 min 0,000 mm 0,0 UV-I 0 W/m 11,0 C 12,3 C 1,6 km/h (1 Bft) 97,87 %
02.08.2016 04:22 12,3 C 92 % 1017,8 hPa 0,0 l/m 0,0 km/h (0 Bft) S-SW 198 0 min 0,000 mm 0,0 UV-I 0 W/m 11,0 C 12,3 C 0,0 km/h (0 Bft) 97,87 %
02.08.2016 04:24 12,3 C 92 % 1017,8 hPa 0,0 l/m 0,7 km/h (0 Bft) S-SW 198 0 min 0,000 mm 0,0 UV-I 0 W/m 11,0 C 12,3 C 3,2 km/h (1 Bft) 100,00 %
02.08.2016 04:26 12,3 C 92 % 1017,8 hPa 0,0 l/m 1,9 km/h (1 Bft) S-SW 198 0 min 0,000 mm 0,0 UV-I 0 W/m 11,0 C 12,3 C 3,2 km/h (1 Bft) 98,00 %
02.08.2016 04:28 12,3 C 92 % 1017,8 hPa 0,0 l/m 2,6 km/h (1 Bft) S-SW 198 0 min 0,000 mm 0,0 UV-I 0 W/m 11,0 C 12,3 C 3,2 km/h (1 Bft) 97,87 %
02.08.2016 04:30 12,3 C 92 % 1017,8 hPa 0,0 l/m 1,3 km/h (1 Bft) S-SW 198 0 min 0,000 mm 0,0 UV-I 0 W/m 11,0 C 12,3 C 1,6 km/h (1 Bft) 97,87 %
02.08.2016 04:32 12,3 C 92 % 1017,8 hPa 0,0 l/m 1,0 km/h (0 Bft) S-SW 198 0 min 0,000 mm 0,0 UV-I 0 W/m 11,0 C 12,3 C 1,6 km/h (1 Bft) 98,11 %
02.08.2016 04:34 12,2 C 92 % 1017,8 hPa 0,0 l/m 0,1 km/h (0 Bft) S-SW 198 0 min 0,000 mm 0,0 UV-I 0 W/m 10,9 C 12,2 C 1,6 km/h (1 Bft) 100,00 %
02.08.2016 04:36 12,2 C 93 % 1017,8 hPa 0,0 l/m 0,7 km/h (0 Bft) S-SW 198 0 min 0,000 mm 0,0 UV-I 0 W/m 11,1 C 12,2 C 1,6 km/h (1 Bft) 98,11 %
02.08.2016 04:38 12,2 C 93 % 1017,8 hPa 0,0 l/m 1,4 km/h (1 Bft) S-SW 198 0 min 0,000 mm 0,0 UV-I 0 W/m 11,1 C 12,2 C 3,2 km/h (1 Bft) 98,11 %
02.08.2016 04:40 12,2 C 93 % 1017,8 hPa 0,0 l/m 2,6 km/h (1 Bft) S-SW 198 0 min 0,000 mm 0,0 UV-I 0 W/m 11,1 C 12,2 C 3,2 km/h (1 Bft) 100,00 %
02.08.2016 04:42 12,2 C 93 % 1017,8 hPa 0,0 l/m 1,5 km/h (1 Bft) S-SW 198 0 min 0,000 mm 0,0 UV-I 0 W/m 11,1 C 12,2 C 3,2 km/h (1 Bft) 97,87 %
02.08.2016 04:44 12,2 C 93 % 1017,8 hPa 0,0 l/m 0,2 km/h (0 Bft) S-SW 198 0 min 0,000 mm 0,0 UV-I 0 W/m 11,1 C 12,2 C 1,6 km/h (1 Bft) 100,00 %
02.08.2016 04:46 12,2 C 93 % 1017,7 hPa 0,0 l/m 0,1 km/h (0 Bft) S-SW 198 0 min 0,000 mm 0,0 UV-I 0 W/m 11,1 C 12,2 C 1,6 km/h (1 Bft) 100,00 %
02.08.2016 04:48 12,2 C 93 % 1017,7 hPa 0,0 l/m 0,1 km/h (0 Bft) S-SW 198 0 min 0,000 mm 0,0 UV-I 0 W/m 11,1 C 12,2 C 1,6 km/h (1 Bft) 97,87 %
02.08.2016 04:50 12,1 C 92 % 1017,7 hPa 0,0 l/m 0,0 km/h (0 Bft) S-SW 198 0 min 0,000 mm 0,0 UV-I 0 W/m 10,8 C 12,1 C 1,6 km/h (1 Bft) 98,00 %
02.08.2016 04:52 12,1 C 93 % 1017,7 hPa 0,0 l/m 0,0 km/h (0 Bft) S-SW 198 0 min 0,000 mm 0,0 UV-I 0 W/m 11,0 C 12,1 C 0,0 km/h (0 Bft) 100,00 %
02.08.2016 04:54 12,0 C 92 % 1017,8 hPa 0,0 l/m 0,4 km/h (0 Bft) S-SW 198 0 min 0,000 mm 0,0 UV-I 0 W/m 10,7 C 12,0 C 1,6 km/h (1 Bft) 100,00 %
02.08.2016 04:56 11,9 C 92 % 1017,7 hPa 0,0 l/m 1,2 km/h (1 Bft) S-SW 198 0 min 0,000 mm 0,0 UV-I 0 W/m 10,6 C 11,9 C 1,6 km/h (1 Bft) 100,00 %
02.08.2016 04:58 11,9 C 93 % 1017,7 hPa 0,0 l/m 0,4 km/h (0 Bft) S-SW 198 0 min 0,000 mm 0,0 UV-I 0 W/m 10,8 C 11,9 C 1,6 km/h (1 Bft) 100,00 %
02.08.2016 05:00 11,9 C 93 % 1017,7 hPa 0,0 l/m 0,0 km/h (0 Bft) S-SW 198 0 min 0,000 mm 0,0 UV-I 0 W/m 10,8 C 11,9 C 0,0 km/h (0 Bft) 97,87 %
02.08.2016 05:02 11,8 C 93 % 1017,7 hPa 0,0 l/m 0,0 km/h (0 Bft) S-SW 198 0 min 0,000 mm 0,0 UV-I 0 W/m 10,7 C 11,8 C 0,0 km/h (0 Bft) 94,74 %
02.08.2016 05:04 11,8 C 93 % 1017,7 hPa 0,0 l/m 0,0 km/h (0 Bft) S-SW 198 0 min 0,000 mm 0,0 UV-I 0 W/m 10,7 C 11,8 C 0,0 km/h (0 Bft) 97,87 %
02.08.2016 05:06 11,8 C 93 % 1017,7 hPa 0,0 l/m 0,0 km/h (0 Bft) S-SW 198 0 min 0,000 mm 0,0 UV-I 0 W/m 10,7 C 11,8 C 0,0 km/h (0 Bft) 100,00 %
02.08.2016 05:08 11,8 C 93 % 1017,7 hPa 0,0 l/m 0,0 km/h (0 Bft) S-SW 198 0 min 0,000 mm 0,0 UV-I 0 W/m 10,7 C 11,8 C 0,0 km/h (0 Bft) 97,87 %
02.08.2016 05:10 11,8 C 93 % 1017,7 hPa 0,0 l/m 0,0 km/h (0 Bft) S-SW 198 0 min 0,000 mm 0,0 UV-I 0 W/m 10,7 C 11,8 C 0,0 km/h (0 Bft) 96,00 %
02.08.2016 05:12 11,8 C 93 % 1017,7 hPa 0,0 l/m 0,0 km/h (0 Bft) S-SW 198 0 min 0,000 mm 0,0 UV-I 0 W/m 10,7 C 11,8 C 0,0 km/h (0 Bft) 100,00 %
02.08.2016 05:14 11,8 C 93 % 1017,7 hPa 0,0 l/m 1,6 km/h (1 Bft) S-SW 198 0 min 0,000 mm 0,0 UV-I 0 W/m 10,7 C 11,8 C 3,2 km/h (1 Bft) 100,00 %
02.08.2016 05:16 11,8 C 93 % 1017,7 hPa 0,0 l/m 3,3 km/h (1 Bft) S-SW 198 0 min 0,000 mm 0,0 UV-I 0 W/m 10,7 C 11,8 C 4,8 km/h (1 Bft) 100,00 %
02.08.2016 05:18 11,8 C 93 % 1017,7 hPa 0,0 l/m 2,9 km/h (1 Bft) S-SW 198 0 min 0,000 mm 0,0 UV-I 0 W/m 10,7 C 11,8 C 4,8 km/h (1 Bft) 98,00 %
02.08.2016 05:20 11,8 C 93 % 1017,7 hPa 0,0 l/m 2,3 km/h (1 Bft) S-SW 197 0 min 0,000 mm 0,0 UV-I 0 W/m 10,7 C 11,8 C 3,2 km/h (1 Bft) 98,00 %
02.08.2016 05:22 11,7 C 93 % 1017,6 hPa 0,0 l/m 0,7 km/h (0 Bft) S-SW 198 0 min 0,000 mm 0,0 UV-I 0 W/m 10,6 C 11,7 C 1,6 km/h (1 Bft) 100,00 %
02.08.2016 05:24 11,7 C 93 % 1017,6 hPa 0,0 l/m 1,3 km/h (1 Bft) S-SW 198 0 min 0,000 mm 0,0 UV-I 0 W/m 10,6 C 11,7 C 3,2 km/h (1 Bft) 100,00 %
02.08.2016 05:26 11,8 C 93 % 1017,7 hPa 0,0 l/m 0,7 km/h (0 Bft) S-SW 198 0 min 0,000 mm 0,0 UV-I 0 W/m 10,7 C 11,8 C 3,2 km/h (1 Bft) 100,00 %
02.08.2016 05:28 11,8 C 93 % 1017,7 hPa 0,0 l/m 0,0 km/h (0 Bft) S-SW 198 0 min 0,000 mm 0,0 UV-I 0 W/m 10,7 C 11,8 C 0,0 km/h (0 Bft) 100,00 %
02.08.2016 05:30 11,7 C 93 % 1017,7 hPa 0,0 l/m 0,0 km/h (0 Bft) S-SW 198 0 min 0,000 mm 0,0 UV-I 0 W/m 10,6 C 11,7 C 0,0 km/h (0 Bft) 100,00 %
02.08.2016 05:32 11,7 C 93 % 1017,7 hPa 0,0 l/m 0,0 km/h (0 Bft) S-SW 197 0 min 0,000 mm 0,0 UV-I 0 W/m 10,6 C 11,7 C 0,0 km/h (0 Bft) 100,00 %
02.08.2016 05:34 11,7 C 93 % 1017,7 hPa 0,0 l/m 0,0 km/h (0 Bft) S-SW 197 0 min 0,000 mm 0,0 UV-I 0 W/m 10,6 C 11,7 C 0,0 km/h (0 Bft) 100,00 %
02.08.2016 05:36 11,6 C 93 % 1017,7 hPa 0,0 l/m 0,1 km/h (0 Bft) S-SW 197 0 min 0,000 mm 0,0 UV-I 0 W/m 10,5 C 11,6 C 1,6 km/h (1 Bft) 100,00 %
02.08.2016 05:38 11,6 C 94 % 1017,7 hPa 0,0 l/m 0,9 km/h (0 Bft) S-SW 198 0 min 0,000 mm 0,0 UV-I 0 W/m 10,7 C 11,6 C 1,6 km/h (1 Bft) 97,87 %
02.08.2016 05:40 11,6 C 93 % 1017,7 hPa 0,0 l/m 0,3 km/h (0 Bft) S-SW 198 0 min 0,000 mm 0,0 UV-I 4 W/m 10,5 C 11,6 C 1,6 km/h (1 Bft) 100,00 %
02.08.2016 05:42 11,6 C 93 % 1017,7 hPa 0,0 l/m 0,8 km/h (0 Bft) S-SW 198 0 min 0,000 mm 0,0 UV-I 5 W/m 10,5 C 11,6 C 1,6 km/h (1 Bft) 100,00 %
02.08.2016 05:44 11,6 C 94 % 1017,6 hPa 0,0 l/m 1,1 km/h (1 Bft) S-SW 198 0 min 0,000 mm 0,0 UV-I 5 W/m 10,7 C 11,6 C 1,6 km/h (1 Bft) 100,00 %
02.08.2016 05:46 11,6 C 94 % 1017,6 hPa 0,0 l/m 0,6 km/h (0 Bft) S-SW 198 0 min 0,000 mm 0,0 UV-I 7 W/m 10,7 C 11,6 C 1,6 km/h (1 Bft) 98,11 %
02.08.2016 05:48 11,6 C 94 % 1017,6 hPa 0,0 l/m 0,1 km/h (0 Bft) S-SW 197 0 min 0,000 mm 0,0 UV-I 7 W/m 10,7 C 11,6 C 1,6 km/h (1 Bft) 94,44 %
02.08.2016 05:50 11,6 C 94 % 1017,7 hPa 0,0 l/m 0,1 km/h (0 Bft) S-SW 198 0 min 0,000 mm 0,0 UV-I 8 W/m 10,7 C 11,6 C 1,6 km/h (1 Bft) 98,08 %
02.08.2016 05:52 11,7 C 94 % 1017,7 hPa 0,0 l/m 0,0 km/h (0 Bft) S-SW 198 0 min 0,000 mm 0,0 UV-I 9 W/m 10,8 C 11,7 C 1,6 km/h (1 Bft) 98,11 %
02.08.2016 05:54 11,7 C 94 % 1017,7 hPa 0,0 l/m 0,0 km/h (0 Bft) S-SW 197 0 min 0,000 mm 0,0 UV-I 10 W/m 10,8 C 11,7 C 1,6 km/h (1 Bft) 97,44 %
02.08.2016 05:56 11,7 C 94 % 1017,7 hPa 0,0 l/m 0,8 km/h (0 Bft) S-SW 198 0 min 0,000 mm 0,0 UV-I 11 W/m 10,8 C 11,7 C 1,6 km/h (1 Bft) 97,87 %
02.08.2016 05:58 11,7 C 93 % 1017,8 hPa 0,0 l/m 1,1 km/h (1 Bft) S-SW 198 0 min 0,000 mm 0,0 UV-I 12 W/m 10,6 C 11,7 C 1,6 km/h (1 Bft) 97,87 %
02.08.2016 06:00 11,7 C 93 % 1017,7 hPa 0,0 l/m 2,3 km/h (1 Bft) S-SW 198 0 min 0,000 mm 0,0 UV-I 14 W/m 10,6 C 11,7 C 3,2 km/h (1 Bft) 96,00 %
02.08.2016 06:02 11,7 C 93 % 1017,8 hPa 0,0 l/m 2,0 km/h (1 Bft) S-SW 198 0 min 0,000 mm 0,0 UV-I 15 W/m 10,6 C 11,7 C 3,2 km/h (1 Bft) 97,37 %
02.08.2016 06:04 11,7 C 94 % 1017,8 hPa 0,0 l/m 1,1 km/h (1 Bft) S-SW 198 0 min 0,000 mm 0,0 UV-I 16 W/m 10,8 C 11,7 C 1,6 km/h (1 Bft) 96,23 %
02.08.2016 06:06 11,7 C 94 % 1017,8 hPa 0,0 l/m 0,7 km/h (0 Bft) S-SW 198 0 min 0,000 mm 0,0 UV-I 18 W/m 10,8 C 11,7 C 1,6 km/h (1 Bft) 98,11 %
02.08.2016 06:08 11,7 C 94 % 1017,7 hPa 0,0 l/m 0,2 km/h (0 Bft) S-SW 198 0 min 0,000 mm 0,0 UV-I 19 W/m 10,8 C 11,7 C 1,6 km/h (1 Bft) 97,87 %
02.08.2016 06:10 11,7 C 94 % 1017,8 hPa 0,0 l/m 0,2 km/h (0 Bft) S-SW 198 0 min 0,000 mm 0,0 UV-I 21 W/m 10,8 C 11,7 C 1,6 km/h (1 Bft) 97,87 %
02.08.2016 06:12 11,8 C 94 % 1017,8 hPa 0,0 l/m 0,0 km/h (0 Bft) S-SW 198 0 min 0,000 mm 0,0 UV-I 22 W/m 10,9 C 11,8 C 0,0 km/h (0 Bft) 97,87 %
02.08.2016 06:14 11,8 C 94 % 1017,8 hPa 0,0 l/m 0,0 km/h (0 Bft) S-SW 198 0 min 0,000 mm 0,0 UV-I 23 W/m 10,9 C 11,8 C 0,0 km/h (0 Bft) 95,74 %
02.08.2016 06:16 11,8 C 94 % 1017,8 hPa 0,0 l/m 0,0 km/h (0 Bft) S-SW 198 0 min 0,000 mm 0,0 UV-I 23 W/m 10,9 C 11,8 C 0,0 km/h (0 Bft) 97,87 %
02.08.2016 06:18 11,9 C 94 % 1017,8 hPa 0,0 l/m 0,0 km/h (0 Bft) S-SW 198 0 min 0,000 mm 0,0 UV-I 24 W/m 11,0 C 11,9 C 0,0 km/h (0 Bft) 97,37 %
02.08.2016 06:20 11,9 C 94 % 1017,8 hPa 0,0 l/m 0,0 km/h (0 Bft) S-SW 198 0 min 0,000 mm 0,0 UV-I 26 W/m 11,0 C 11,9 C 0,0 km/h (0 Bft) 100,00 %
02.08.2016 06:22 11,9 C 94 % 1017,8 hPa 0,0 l/m 0,0 km/h (0 Bft) S-SW 198 0 min 0,000 mm 0,0 UV-I 28 W/m 11,0 C 11,9 C 0,0 km/h (0 Bft) 98,00 %
02.08.2016 06:24 12,0 C 94 % 1017,8 hPa 0,0 l/m 0,0 km/h (0 Bft) S-SW 198 0 min 0,000 mm 0,0 UV-I 31 W/m 11,1 C 12,0 C 0,0 km/h (0 Bft) 97,87 %
02.08.2016 06:26 11,9 C 94 % 1017,8 hPa 0,0 l/m 0,9 km/h (0 Bft) S-SW 197 0 min 0,000 mm 0,0 UV-I 34 W/m 11,0 C 11,9 C 1,6 km/h (1 Bft) 100,00 %
02.08.2016 06:28 11,9 C 93 % 1017,8 hPa 0,0 l/m 1,8 km/h (1 Bft) S-SW 198 0 min 0,000 mm 0,0 UV-I 36 W/m 10,8 C 11,9 C 3,2 km/h (1 Bft) 100,00 %
02.08.2016 06:30 11,9 C 94 % 1017,8 hPa 0,0 l/m 1,2 km/h (1 Bft) S-SW 198 0 min 0,000 mm 0,0 UV-I 37 W/m 11,0 C 11,9 C 1,6 km/h (1 Bft) 100,00 %
02.08.2016 06:32 11,9 C 94 % 1017,7 hPa 0,0 l/m 1,0 km/h (0 Bft) S-SW 198 0 min 0,000 mm 0,0 UV-I 39 W/m 11,0 C 11,9 C 1,6 km/h (1 Bft) 98,00 %
02.08.2016 06:34 12,1 C 94 % 1017,8 hPa 0,0 l/m 0,4 km/h (0 Bft) S-SW 198 0 min 0,000 mm 0,0 UV-I 40 W/m 11,2 C 12,1 C 1,6 km/h (1 Bft) 94,87 %
02.08.2016 06:36 12,1 C 94 % 1017,8 hPa 0,0 l/m 0,0 km/h (0 Bft) S-SW 198 0 min 0,000 mm 0,0 UV-I 41 W/m 11,2 C 12,1 C 0,0 km/h (0 Bft) 100,00 %
02.08.2016 06:38 12,2 C 94 % 1017,8 hPa 0,0 l/m 0,0 km/h (0 Bft) S-SW 198 0 min 0,000 mm 0,0 UV-I 42 W/m 11,3 C 12,2 C 0,0 km/h (0 Bft) 100,00 %
02.08.2016 06:40 12,3 C 94 % 1017,8 hPa 0,0 l/m 0,0 km/h (0 Bft) S-SW 198 0 min 0,000 mm 0,0 UV-I 43 W/m 11,4 C 12,3 C 0,0 km/h (0 Bft) 100,00 %
02.08.2016 06:42 12,4 C 94 % 1017,8 hPa 0,0 l/m 0,0 km/h (0 Bft) S-SW 198 0 min 0,000 mm 0,0 UV-I 44 W/m 11,5 C 12,4 C 0,0 km/h (0 Bft) 97,87 %
02.08.2016 06:44 12,4 C 93 % 1017,8 hPa 0,0 l/m 0,1 km/h (0 Bft) S-SW 198 0 min 0,000 mm 0,0 UV-I 45 W/m 11,3 C 12,4 C 1,6 km/h (1 Bft) 100,00 %
02.08.2016 06:46 12,5 C 93 % 1017,8 hPa 0,0 l/m 0,6 km/h (0 Bft) S-SW 198 0 min 0,000 mm 0,0 UV-I 46 W/m 11,4 C 12,5 C 1,6 km/h (1 Bft) 100,00 %
02.08.2016 06:48 12,5 C 93 % 1017,9 hPa 0,0 l/m 1,0 km/h (0 Bft) S-SW 198 0 min 0,000 mm 0,0 UV-I 48 W/m 11,4 C 12,5 C 1,6 km/h (1 Bft) 97,56 %
02.08.2016 06:50 12,6 C 93 % 1017,9 hPa 0,0 l/m 0,9 km/h (0 Bft) S-SW 198 0 min 0,000 mm 0,0 UV-I 51 W/m 11,5 C 12,6 C 1,6 km/h (1 Bft) 100,00 %
02.08.2016 06:52 12,6 C 93 % 1017,9 hPa 0,0 l/m 0,1 km/h (0 Bft) S-SW 198 0 min 0,000 mm 0,0 UV-I 54 W/m 11,5 C 12,6 C 1,6 km/h (1 Bft) 100,00 %
02.08.2016 06:54 12,7 C 93 % 1017,9 hPa 0,0 l/m 0,0 km/h (0 Bft) S-SW 198 0 min 0,000 mm 0,0 UV-I 63 W/m 11,6 C 12,7 C 0,0 km/h (0 Bft) 97,87 %
02.08.2016 06:56 12,7 C 93 % 1017,9 hPa 0,0 l/m 0,7 km/h (0 Bft) S-SW 198 2 min 0,000 mm 0,0 UV-I 105 W/m 11,6 C 12,7 C 1,6 km/h (1 Bft) 100,00 %
02.08.2016 06:58 12,9 C 93 % 1017,9 hPa 0,0 l/m 1,5 km/h (1 Bft) S-SW 198 2 min 0,000 mm 0,0 UV-I 124 W/m 11,8 C 12,9 C 1,6 km/h (1 Bft) 97,87 %
02.08.2016 07:00 13,0 C 93 % 1017,9 hPa 0,0 l/m 0,4 km/h (0 Bft) S-SW 198 2 min 0,000 mm 0,0 UV-I 128 W/m 11,9 C 13,0 C 1,6 km/h (1 Bft) 98,11 %
02.08.2016 07:02 13,1 C 93 % 1017,9 hPa 0,0 l/m 1,1 km/h (1 Bft) S-SW 198 2 min 0,026 mm 0,0 UV-I 132 W/m 12,0 C 13,1 C 1,6 km/h (1 Bft) 100,00 %
02.08.2016 07:04 13,3 C 93 % 1017,8 hPa 0,0 l/m 0,8 km/h (0 Bft) S-SW 198 0 min 0,000 mm 0,0 UV-I 109 W/m 12,2 C 13,3 C 3,2 km/h (1 Bft) 100,00 %
02.08.2016 07:06 13,4 C 92 % 1017,8 hPa 0,0 l/m 0,7 km/h (0 Bft) S-SW 198 0 min 0,000 mm 0,0 UV-I 83 W/m 12,1 C 13,4 C 1,6 km/h (1 Bft) 100,00 %
02.08.2016 07:08 13,4 C 92 % 1017,9 hPa 0,0 l/m 1,1 km/h (1 Bft) S-SW 198 0 min 0,000 mm 0,0 UV-I 115 W/m 12,1 C 13,4 C 3,2 km/h (1 Bft) 100,00 %
02.08.2016 07:10 13,6 C 91 % 1017,9 hPa 0,0 l/m 1,3 km/h (1 Bft) S-SW 198 2 min 0,000 mm 0,0 UV-I 143 W/m 12,2 C 13,6 C 3,2 km/h (1 Bft) 97,44 %
02.08.2016 07:12 13,7 C 91 % 1017,9 hPa 0,0 l/m 1,8 km/h (1 Bft) S-SW 197 2 min 0,000 mm 0,0 UV-I 141 W/m 12,3 C 13,7 C 3,2 km/h (1 Bft) 100,00 %
02.08.2016 07:14 13,8 C 90 % 1018,0 hPa 0,0 l/m 1,9 km/h (1 Bft) S-SW 197 2 min 0,000 mm 0,0 UV-I 142 W/m 12,2 C 13,8 C 4,8 km/h (1 Bft) 100,00 %
02.08.2016 07:16 13,9 C 90 % 1017,9 hPa 0,0 l/m 0,8 km/h (0 Bft) S-SW 198 2 min 0,000 mm 0,0 UV-I 133 W/m 12,3 C 13,9 C 3,2 km/h (1 Bft) 98,21 %
02.08.2016 07:18 14,0 C 89 % 1017,9 hPa 0,0 l/m 1,6 km/h (1 Bft) S-SW 197 2 min 0,000 mm 0,0 UV-I 140 W/m 12,2 C 14,0 C 3,2 km/h (1 Bft) 98,00 %
02.08.2016 07:20 14,1 C 89 % 1018,0 hPa 0,0 l/m 0,9 km/h (0 Bft) S-SW 198 0 min 0,000 mm 0,0 UV-I 136 W/m 12,3 C 14,1 C 3,2 km/h (1 Bft) 97,56 %
02.08.2016 07:22 14,2 C 89 % 1018,0 hPa 0,0 l/m 1,5 km/h (1 Bft) S-SW 197 0 min 0,000 mm 0,0 UV-I 114 W/m 12,4 C 14,2 C 3,2 km/h (1 Bft) 100,00 %
02.08.2016 07:24 14,3 C 88 % 1018,0 hPa 0,0 l/m 0,8 km/h (0 Bft) S-SW 197 0 min 0,000 mm 0,0 UV-I 131 W/m 12,3 C 14,3 C 1,6 km/h (1 Bft) 100,00 %
02.08.2016 07:26 14,4 C 88 % 1018,0 hPa 0,0 l/m 0,7 km/h (0 Bft) S-SW 197 0 min 0,000 mm 0,0 UV-I 136 W/m 12,4 C 14,4 C 1,6 km/h (1 Bft) 97,87 %
02.08.2016 07:28 14,6 C 87 % 1018,0 hPa 0,0 l/m 0,8 km/h (0 Bft) S-SW 197 0 min 0,000 mm 0,0 UV-I 144 W/m 12,5 C 14,6 C 3,2 km/h (1 Bft) 100,00 %
02.08.2016 07:30 14,6 C 87 % 1018,0 hPa 0,0 l/m 1,3 km/h (1 Bft) S-SW 197 0 min 0,000 mm 0,0 UV-I 146 W/m 12,5 C 14,6 C 3,2 km/h (1 Bft) 100,00 %
02.08.2016 07:32 14,7 C 87 % 1018,0 hPa 0,0 l/m 1,2 km/h (1 Bft) S-SW 197 2 min 0,000 mm 0,0 UV-I 156 W/m 12,6 C 14,7 C 3,2 km/h (1 Bft) 95,74 %
02.08.2016 07:34 14,8 C 87 % 1018,0 hPa 0,0 l/m 0,3 km/h (0 Bft) S-SW 197 2 min 0,000 mm 0,0 UV-I 166 W/m 12,7 C 14,8 C 1,6 km/h (1 Bft) 98,11 %
02.08.2016 07:36 14,8 C 86 % 1018,0 hPa 0,0 l/m 0,3 km/h (0 Bft) S-SW 197 2 min 0,000 mm 0,0 UV-I 190 W/m 12,5 C 14,8 C 1,6 km/h (1 Bft) 100,00 %
02.08.2016 07:38 14,9 C 86 % 1018,0 hPa 0,0 l/m 1,1 km/h (1 Bft) S-SW 197 2 min 0,000 mm 0,4 UV-I 194 W/m 12,6 C 14,9 C 3,2 km/h (1 Bft) 97,87 %
02.08.2016 07:40 15,0 C 87 % 1018,0 hPa 0,0 l/m 0,7 km/h (0 Bft) S-SW 197 2 min 0,000 mm 0,5 UV-I 207 W/m 12,9 C 15,0 C 3,2 km/h (1 Bft) 100,00 %
02.08.2016 07:42 15,1 C 86 % 1018,0 hPa 0,0 l/m 1,0 km/h (0 Bft) S-SW 197 2 min 0,000 mm 0,5 UV-I 221 W/m 12,8 C 15,1 C 1,6 km/h (1 Bft) 100,00 %
02.08.2016 07:44 15,2 C 86 % 1018,0 hPa 0,0 l/m 0,9 km/h (0 Bft) S-SW 197 2 min 0,000 mm 0,5 UV-I 212 W/m 12,9 C 15,2 C 1,6 km/h (1 Bft) 97,37 %
02.08.2016 07:46 15,3 C 86 % 1018,0 hPa 0,0 l/m 0,2 km/h (0 Bft) S-SW 197 2 min 0,000 mm 0,5 UV-I 227 W/m 13,0 C 15,3 C 1,6 km/h (1 Bft) 96,23 %
02.08.2016 07:48 15,5 C 86 % 1018,0 hPa 0,0 l/m 0,2 km/h (0 Bft) S-SW 197 2 min 0,000 mm 0,6 UV-I 245 W/m 13,2 C 15,5 C 1,6 km/h (1 Bft) 100,00 %
02.08.2016 07:50 15,6 C 86 % 1018,0 hPa 0,0 l/m 2,1 km/h (1 Bft) S-SW 197 2 min 0,000 mm 0,6 UV-I 250 W/m 13,3 C 15,6 C 3,2 km/h (1 Bft) 100,00 %
02.08.2016 07:52 15,7 C 85 % 1018,0 hPa 0,0 l/m 1,5 km/h (1 Bft) S-SW 197 2 min 0,000 mm 0,6 UV-I 248 W/m 13,2 C 15,7 C 3,2 km/h (1 Bft) 100,00 %
02.08.2016 07:54 15,8 C 84 % 1018,0 hPa 0,0 l/m 1,9 km/h (1 Bft) S-SW 197 2 min 0,000 mm 0,7 UV-I 242 W/m 13,1 C 15,8 C 3,2 km/h (1 Bft) 97,92 %
02.08.2016 07:56 15,8 C 83 % 1018,0 hPa 0,0 l/m 0,4 km/h (0 Bft) S-SW 197 2 min 0,000 mm 0,7 UV-I 261 W/m 12,9 C 15,8 C 1,6 km/h (1 Bft) 97,37 %
02.08.2016 07:58 15,8 C 84 % 1018,0 hPa 0,0 l/m 0,5 km/h (0 Bft) S-SW 197 2 min 0,000 mm 0,7 UV-I 272 W/m 13,1 C 15,8 C 1,6 km/h (1 Bft) 95,74 %
02.08.2016 08:00 15,8 C 84 % 1018,0 hPa 0,0 l/m 0,6 km/h (0 Bft) S-SW 197 2 min 0,101 mm 0,7 UV-I 282 W/m 13,1 C 15,8 C 1,6 km/h (1 Bft) 96,00 %
02.08.2016 08:02 15,8 C 83 % 1018,0 hPa 0,0 l/m 0,3 km/h (0 Bft) S-SW 197 2 min 0,000 mm 0,7 UV-I 274 W/m 12,9 C 15,8 C 1,6 km/h (1 Bft) 93,62 %
02.08.2016 08:04 15,8 C 84 % 1018,0 hPa 0,0 l/m 0,4 km/h (0 Bft) S-SW 197 2 min 0,000 mm 0,8 UV-I 271 W/m 13,1 C 15,8 C 1,6 km/h (1 Bft) 96,00 %
02.08.2016 08:06 15,9 C 83 % 1018,0 hPa 0,0 l/m 2,0 km/h (1 Bft) S-SW 197 2 min 0,000 mm 0,8 UV-I 268 W/m 13,0 C 15,9 C 3,2 km/h (1 Bft) 97,78 %
02.08.2016 08:08 15,9 C 81 % 1018,0 hPa 0,0 l/m 2,2 km/h (1 Bft) S-SW 197 2 min 0,000 mm 0,8 UV-I 256 W/m 12,6 C 15,9 C 4,8 km/h (1 Bft) 97,87 %
02.08.2016 08:10 15,9 C 81 % 1018,0 hPa 0,0 l/m 1,9 km/h (1 Bft) S-SW 197 2 min 0,000 mm 0,8 UV-I 244 W/m 12,6 C 15,9 C 3,2 km/h (1 Bft) 95,74 %
02.08.2016 08:12 16,1 C 82 % 1018,0 hPa 0,0 l/m 1,3 km/h (1 Bft) S-SW 197 2 min 0,000 mm 0,9 UV-I 258 W/m 13,0 C 16,1 C 3,2 km/h (1 Bft) 96,55 %
02.08.2016 08:14 16,1 C 82 % 1017,9 hPa 0,0 l/m 2,0 km/h (1 Bft) S-SW 198 2 min 0,000 mm 0,9 UV-I 230 W/m 13,0 C 16,1 C 4,8 km/h (1 Bft) 96,77 %
02.08.2016 08:16 16,1 C 82 % 1017,9 hPa 0,0 l/m 2,1 km/h (1 Bft) S-SW 198 2 min 0,000 mm 0,9 UV-I 228 W/m 13,0 C 16,1 C 4,8 km/h (1 Bft) 96,00 %
02.08.2016 08:18 16,1 C 82 % 1017,9 hPa 0,0 l/m 0,3 km/h (0 Bft) S-SW 198 2 min 0,000 mm 1,0 UV-I 272 W/m 13,0 C 16,1 C 1,6 km/h (1 Bft) 100,00 %
02.08.2016 08:20 16,2 C 83 % 1017,9 hPa 0,0 l/m 1,0 km/h (0 Bft) S-SW 198 2 min 0,000 mm 1,0 UV-I 281 W/m 13,3 C 16,2 C 3,2 km/h (1 Bft) 96,00 %
02.08.2016 08:22 16,2 C 82 % 1017,9 hPa 0,0 l/m 2,0 km/h (1 Bft) S-SW 198 2 min 0,000 mm 1,1 UV-I 313 W/m 13,1 C 16,2 C 3,2 km/h (1 Bft) 97,87 %
02.08.2016 08:24 16,3 C 83 % 1017,9 hPa 0,0 l/m 2,2 km/h (1 Bft) S-SW 199 2 min 0,000 mm 1,1 UV-I 336 W/m 13,4 C 16,3 C 4,8 km/h (1 Bft) 97,87 %
02.08.2016 08:26 16,3 C 81 % 1017,9 hPa 0,0 l/m 2,1 km/h (1 Bft) S-SW 199 2 min 0,000 mm 1,1 UV-I 343 W/m 13,0 C 16,3 C 4,8 km/h (1 Bft) 97,62 %
02.08.2016 08:28 16,4 C 81 % 1017,9 hPa 0,0 l/m 0,5 km/h (0 Bft) S-SW 199 2 min 0,000 mm 1,1 UV-I 311 W/m 13,1 C 16,4 C 1,6 km/h (1 Bft) 98,00 %
02.08.2016 08:30 16,4 C 82 % 1017,9 hPa 0,0 l/m 1,9 km/h (1 Bft) S-SW 199 2 min 0,000 mm 1,2 UV-I 340 W/m 13,3 C 16,4 C 3,2 km/h (1 Bft) 97,87 %
02.08.2016 08:32 16,5 C 81 % 1017,9 hPa 0,0 l/m 3,3 km/h (1 Bft) S-SW 208 2 min 0,000 mm 1,2 UV-I 354 W/m 13,2 C 16,5 C 4,8 km/h (1 Bft) 95,12 %
02.08.2016 08:34 16,5 C 81 % 1018,0 hPa 0,0 l/m 3,3 km/h (1 Bft) SW 216 2 min 0,000 mm 1,3 UV-I 377 W/m 13,2 C 16,5 C 4,8 km/h (1 Bft) 98,00 %
02.08.2016 08:36 16,6 C 82 % 1018,0 hPa 0,0 l/m 1,8 km/h (1 Bft) SW 216 2 min 0,000 mm 1,3 UV-I 410 W/m 13,5 C 16,6 C 3,2 km/h (1 Bft) 98,00 %
02.08.2016 08:38 16,7 C 80 % 1018,0 hPa 0,0 l/m 2,2 km/h (1 Bft) SW 217 2 min 0,000 mm 1,4 UV-I 417 W/m 13,2 C 16,7 C 3,2 km/h (1 Bft) 96,00 %
02.08.2016 08:40 16,7 C 81 % 1018,0 hPa 0,0 l/m 2,9 km/h (1 Bft) SW 219 2 min 0,000 mm 1,4 UV-I 425 W/m 13,4 C 16,7 C 4,8 km/h (1 Bft) 100,00 %
02.08.2016 08:42 16,8 C 81 % 1018,0 hPa 0,0 l/m 1,5 km/h (1 Bft) SW 219 2 min 0,000 mm 1,4 UV-I 426 W/m 13,5 C 16,8 C 3,2 km/h (1 Bft) 100,00 %
02.08.2016 08:44 16,9 C 80 % 1018,0 hPa 0,0 l/m 2,4 km/h (1 Bft) SW 219 2 min 0,000 mm 1,4 UV-I 427 W/m 13,4 C 16,9 C 4,8 km/h (1 Bft) 100,00 %
02.08.2016 08:46 16,9 C 80 % 1018,0 hPa 0,0 l/m 1,8 km/h (1 Bft) SW 219 2 min 0,000 mm 1,5 UV-I 392 W/m 13,4 C 16,9 C 3,2 km/h (1 Bft) 100,00 %
02.08.2016 08:48 17,0 C 79 % 1018,0 hPa 0,0 l/m 1,3 km/h (1 Bft) W 266 2 min 0,000 mm 1,5 UV-I 396 W/m 13,3 C 17,0 C 3,2 km/h (1 Bft) 100,00 %
02.08.2016 08:50 17,1 C 79 % 1018,0 hPa 0,0 l/m 1,4 km/h (1 Bft) W 269 2 min 0,000 mm 1,5 UV-I 382 W/m 13,4 C 17,1 C 3,2 km/h (1 Bft) 100,00 %
02.08.2016 08:52 17,2 C 79 % 1018,0 hPa 0,0 l/m 1,3 km/h (1 Bft) W 274 2 min 0,000 mm 1,6 UV-I 382 W/m 13,5 C 17,2 C 3,2 km/h (1 Bft) 100,00 %
02.08.2016 08:54 17,3 C 78 % 1018,0 hPa 0,0 l/m 2,5 km/h (1 Bft) N-NW 336 2 min 0,000 mm 1,6 UV-I 374 W/m 13,4 C 17,3 C 4,8 km/h (1 Bft) 100,00 %
02.08.2016 08:56 17,4 C 78 % 1018,0 hPa 0,0 l/m 2,7 km/h (1 Bft) N-NO 24 2 min 0,000 mm 1,6 UV-I 362 W/m 13,5 C 17,4 C 4,8 km/h (1 Bft) 100,00 %
02.08.2016 08:58 17,6 C 78 % 1018,1 hPa 0,0 l/m 2,5 km/h (1 Bft) NO 38 2 min 0,000 mm 1,7 UV-I 358 W/m 13,7 C 17,6 C 4,8 km/h (1 Bft) 97,56 %
02.08.2016 09:00 17,6 C 78 % 1018,0 hPa 0,0 l/m 0,4 km/h (0 Bft) NO 38 2 min 0,178 mm 1,7 UV-I 352 W/m 13,7 C 17,6 C 1,6 km/h (1 Bft) 100,00 %
02.08.2016 09:02 17,7 C 80 % 1018,0 hPa 0,0 l/m 0,7 km/h (0 Bft) N-NW 342 2 min 0,000 mm 1,8 UV-I 359 W/m 14,2 C 17,7 C 3,2 km/h (1 Bft) 100,00 %
02.08.2016 09:04 17,8 C 77 % 1018,1 hPa 0,0 l/m 2,6 km/h (1 Bft) W-NW 294 2 min 0,000 mm 1,8 UV-I 358 W/m 13,7 C 17,8 C 4,8 km/h (1 Bft) 100,00 %
02.08.2016 09:06 17,7 C 77 % 1018,0 hPa 0,0 l/m 1,5 km/h (1 Bft) NW 318 2 min 0,000 mm 1,8 UV-I 361 W/m 13,6 C 17,7 C 3,2 km/h (1 Bft) 97,87 %
02.08.2016 09:08 17,8 C 78 % 1018,0 hPa 0,0 l/m 1,4 km/h (1 Bft) NW 313 2 min 0,000 mm 1,9 UV-I 366 W/m 13,9 C 17,8 C 3,2 km/h (1 Bft) 100,00 %
02.08.2016 09:10 17,9 C 79 % 1018,0 hPa 0,0 l/m 0,9 km/h (0 Bft) N 355 2 min 0,000 mm 2,0 UV-I 371 W/m 14,2 C 17,9 C 3,2 km/h (1 Bft) 97,87 %
02.08.2016 09:12 18,1 C 76 % 1018,0 hPa 0,0 l/m 4,0 km/h (1 Bft) N-NO 30 2 min 0,000 mm 2,0 UV-I 381 W/m 13,8 C 18,1 C 6,4 km/h (2 Bft) 100,00 %
02.08.2016 09:14 18,2 C 75 % 1018,0 hPa 0,0 l/m 3,6 km/h (1 Bft) NO 51 2 min 0,000 mm 2,1 UV-I 388 W/m 13,7 C 18,2 C 6,4 km/h (2 Bft) 100,00 %
02.08.2016 09:16 18,3 C 73 % 1018,0 hPa 0,0 l/m 5,4 km/h (1 Bft) NO 51 2 min 0,000 mm 2,2 UV-I 417 W/m 13,4 C 18,3 C 8,0 km/h (2 Bft) 98,00 %
02.08.2016 09:18 18,4 C 73 % 1018,0 hPa 0,0 l/m 4,2 km/h (1 Bft) N-NO 24 2 min 0,000 mm 2,2 UV-I 427 W/m 13,5 C 18,4 C 6,4 km/h (2 Bft) 100,00 %
02.08.2016 09:20 18,5 C 73 % 1018,0 hPa 0,0 l/m 3,6 km/h (1 Bft) N 10 2 min 0,000 mm 2,2 UV-I 444 W/m 13,6 C 18,5 C 6,4 km/h (2 Bft) 100,00 %
02.08.2016 09:22 18,6 C 73 % 1018,0 hPa 0,0 l/m 2,6 km/h (1 Bft) N 355 2 min 0,000 mm 2,2 UV-I 455 W/m 13,7 C 18,6 C 3,2 km/h (1 Bft) 100,00 %
02.08.2016 09:24 18,6 C 72 % 1017,9 hPa 0,0 l/m 2,3 km/h (1 Bft) N-NO 28 2 min 0,000 mm 2,3 UV-I 472 W/m 13,4 C 18,6 C 4,8 km/h (1 Bft) 100,00 %
02.08.2016 09:26 18,8 C 74 % 1017,9 hPa 0,0 l/m 3,5 km/h (1 Bft) O-NO 66 2 min 0,000 mm 2,4 UV-I 491 W/m 14,1 C 18,8 C 6,4 km/h (2 Bft) 98,11 %
02.08.2016 09:28 18,8 C 72 % 1017,9 hPa 0,0 l/m 4,9 km/h (1 Bft) NO 46 2 min 0,000 mm 2,4 UV-I 511 W/m 13,6 C 18,8 C 8,0 km/h (2 Bft) 100,00 %
02.08.2016 09:30 18,9 C 74 % 1017,9 hPa 0,0 l/m 4,9 km/h (1 Bft) O-NO 58 2 min 0,000 mm 2,4 UV-I 531 W/m 14,2 C 18,9 C 6,4 km/h (2 Bft) 100,00 %
02.08.2016 09:32 18,9 C 72 % 1017,9 hPa 0,0 l/m 4,9 km/h (1 Bft) N-NO 24 2 min 0,000 mm 2,4 UV-I 536 W/m 13,7 C 18,9 C 8,0 km/h (2 Bft) 100,00 %
02.08.2016 09:34 19,1 C 73 % 1017,9 hPa 0,0 l/m 3,0 km/h (1 Bft) NO 46 2 min 0,000 mm 2,4 UV-I 512 W/m 14,1 C 19,1 C 6,4 km/h (2 Bft) 100,00 %
02.08.2016 09:36 19,1 C 71 % 1017,9 hPa 0,0 l/m 5,4 km/h (1 Bft) O-SO 117 2 min 0,000 mm 2,6 UV-I 550 W/m 13,7 C 19,1 C 9,7 km/h (2 Bft) 100,00 %
02.08.2016 09:38 19,1 C 71 % 1017,9 hPa 0,0 l/m 3,6 km/h (1 Bft) O 92 2 min 0,000 mm 2,6 UV-I 567 W/m 13,7 C 19,1 C 6,4 km/h (2 Bft) 100,00 %
02.08.2016 09:40 19,1 C 73 % 1017,9 hPa 0,0 l/m 1,4 km/h (1 Bft) O-NO 63 2 min 0,000 mm 2,6 UV-I 529 W/m 14,1 C 19,1 C 3,2 km/h (1 Bft) 100,00 %
02.08.2016 09:42 19,1 C 72 % 1017,9 hPa 0,0 l/m 4,2 km/h (1 Bft) O-NO 65 2 min 0,000 mm 2,4 UV-I 451 W/m 13,9 C 19,1 C 9,7 km/h (2 Bft) 100,00 %
02.08.2016 09:44 18,9 C 72 % 1017,8 hPa 0,0 l/m 2,5 km/h (1 Bft) NO 55 2 min 0,000 mm 2,3 UV-I 386 W/m 13,7 C 18,9 C 6,4 km/h (2 Bft) 100,00 %
02.08.2016 09:46 18,9 C 75 % 1017,8 hPa 0,0 l/m 3,3 km/h (1 Bft) NO 37 2 min 0,000 mm 2,3 UV-I 444 W/m 14,4 C 18,9 C 8,0 km/h (2 Bft) 100,00 %
02.08.2016 09:48 18,9 C 74 % 1017,8 hPa 0,0 l/m 0,8 km/h (0 Bft) O-NO 65 2 min 0,000 mm 2,1 UV-I 342 W/m 14,2 C 18,9 C 4,8 km/h (1 Bft) 100,00 %
02.08.2016 09:50 18,9 C 75 % 1017,9 hPa 0,0 l/m 5,9 km/h (2 Bft) O-NO 59 2 min 0,000 mm 2,3 UV-I 354 W/m 14,4 C 18,9 C 8,0 km/h (2 Bft) 100,00 %
02.08.2016 09:52 18,9 C 73 % 1017,9 hPa 0,0 l/m 5,5 km/h (1 Bft) NO 43 2 min 0,000 mm 2,6 UV-I 437 W/m 13,9 C 18,9 C 9,7 km/h (2 Bft) 100,00 %
02.08.2016 09:54 19,1 C 74 % 1017,9 hPa 0,0 l/m 4,3 km/h (1 Bft) NO 51 2 min 0,000 mm 2,8 UV-I 522 W/m 14,4 C 19,1 C 8,0 km/h (2 Bft) 98,00 %
02.08.2016 09:56 19,2 C 74 % 1017,9 hPa 0,0 l/m 5,6 km/h (1 Bft) NO 43 2 min 0,000 mm 3,1 UV-I 624 W/m 14,4 C 19,2 C 9,7 km/h (2 Bft) 98,00 %
02.08.2016 09:58 19,3 C 73 % 1017,9 hPa 0,0 l/m 6,7 km/h (2 Bft) O-NO 58 2 min 0,000 mm 3,0 UV-I 496 W/m 14,3 C 19,2 C 9,7 km/h (2 Bft) 97,56 %
02.08.2016 10:00 19,5 C 71 % 1017,9 hPa 0,0 l/m 7,0 km/h (2 Bft) O-NO 77 2 min 0,280 mm 3,2 UV-I 470 W/m 14,1 C 19,2 C 9,7 km/h (2 Bft) 96,43 %
02.08.2016 10:02 19,4 C 72 % 1017,9 hPa 0,0 l/m 5,0 km/h (1 Bft) O-NO 76 2 min 0,000 mm 3,1 UV-I 611 W/m 14,2 C 19,4 C 8,0 km/h (2 Bft) 97,87 %
02.08.2016 10:04 19,4 C 72 % 1017,9 hPa 0,0 l/m 1,2 km/h (1 Bft) O-NO 76 2 min 0,000 mm 3,1 UV-I 579 W/m 14,2 C 19,4 C 4,8 km/h (1 Bft) 97,56 %
02.08.2016 10:06 19,4 C 72 % 1017,9 hPa 0,0 l/m 0,9 km/h (0 Bft) O-NO 59 2 min 0,000 mm 2,8 UV-I 574 W/m 14,2 C 19,4 C 3,2 km/h (1 Bft) 97,87 %
02.08.2016 10:08 19,4 C 72 % 1017,8 hPa 0,0 l/m 3,1 km/h (1 Bft) NO 42 2 min 0,000 mm 2,8 UV-I 457 W/m 14,2 C 19,4 C 6,4 km/h (2 Bft) 97,87 %
02.08.2016 10:10 19,4 C 70 % 1017,7 hPa 0,0 l/m 1,0 km/h (0 Bft) NO 42 2 min 0,000 mm 2,9 UV-I 507 W/m 13,8 C 19,4 C 3,2 km/h (1 Bft) 97,56 %
02.08.2016 10:12 19,4 C 71 % 1017,7 hPa 0,0 l/m 3,2 km/h (1 Bft) NO 52 2 min 0,000 mm 3,0 UV-I 527 W/m 14,0 C 19,4 C 8,0 km/h (2 Bft) 94,92 %
02.08.2016 10:14 19,7 C 72 % 1017,7 hPa 0,0 l/m 6,2 km/h (2 Bft) NO 43 2 min 0,000 mm 3,3 UV-I 587 W/m 14,5 C 19,7 C 9,7 km/h (2 Bft) 97,37 %
02.08.2016 10:16 19,8 C 70 % 1017,7 hPa 0,0 l/m 2,7 km/h (1 Bft) N-NO 18 2 min 0,000 mm 3,5 UV-I 666 W/m 14,2 C 19,8 C 6,4 km/h (2 Bft) 98,11 %
02.08.2016 10:18 19,7 C 71 % 1017,7 hPa 0,0 l/m 2,2 km/h (1 Bft) N-NO 22 2 min 0,000 mm 3,6 UV-I 671 W/m 14,3 C 19,7 C 3,2 km/h (1 Bft) 97,37 %
02.08.2016 10:20 19,9 C 70 % 1017,7 hPa 0,0 l/m 2,0 km/h (1 Bft) O-NO 71 2 min 0,000 mm 3,5 UV-I 631 W/m 14,3 C 19,9 C 6,4 km/h (2 Bft) 96,00 %
02.08.2016 10:22 20,1 C 68 % 1017,7 hPa 0,0 l/m 5,4 km/h (1 Bft) O 85 2 min 0,000 mm 3,4 UV-I 586 W/m 14,0 C 20,1 C 8,0 km/h (2 Bft) 98,11 %
02.08.2016 10:24 20,0 C 68 % 1017,7 hPa 0,0 l/m 3,7 km/h (1 Bft) O-NO 62 2 min 0,000 mm 3,4 UV-I 577 W/m 13,9 C 20,0 C 6,4 km/h (2 Bft) 97,62 %
02.08.2016 10:26 20,1 C 67 % 1017,6 hPa 0,0 l/m 4,0 km/h (1 Bft) NO 51 2 min 0,000 mm 3,7 UV-I 654 W/m 13,8 C 20,1 C 6,4 km/h (2 Bft) 100,00 %
02.08.2016 10:28 20,1 C 66 % 1017,6 hPa 0,0 l/m 1,5 km/h (1 Bft) NO 51 2 min 0,000 mm 4,0 UV-I 693 W/m 13,5 C 20,1 C 3,2 km/h (1 Bft) 100,00 %
02.08.2016 10:30 20,0 C 65 % 1017,7 hPa 0,0 l/m 2,0 km/h (1 Bft) NO 51 2 min 0,000 mm 4,0 UV-I 683 W/m 13,2 C 20,0 C 3,2 km/h (1 Bft) 100,00 %
02.08.2016 10:32 20,0 C 67 % 1017,7 hPa 0,0 l/m 0,9 km/h (0 Bft) NO 52 2 min 0,000 mm 3,9 UV-I 650 W/m 13,7 C 20,0 C 3,2 km/h (1 Bft) 100,00 %
02.08.2016 10:34 20,1 C 67 % 1017,6 hPa 0,0 l/m 4,1 km/h (1 Bft) O-NO 61 2 min 0,000 mm 4,1 UV-I 700 W/m 13,8 C 20,1 C 9,7 km/h (2 Bft) 97,87 %
02.08.2016 10:36 20,4 C 67 % 1017,6 hPa 0,0 l/m 7,6 km/h (2 Bft) N-NO 24 2 min 0,000 mm 4,2 UV-I 741 W/m 14,1 C 19,9 C 11,3 km/h (2 Bft) 100,00 %
02.08.2016 10:38 20,7 C 65 % 1017,6 hPa 0,0 l/m 7,0 km/h (2 Bft) N 9 2 min 0,000 mm 4,1 UV-I 747 W/m 13,9 C 20,5 C 14,5 km/h (3 Bft) 97,96 %
02.08.2016 10:40 20,8 C 65 % 1017,6 hPa 0,0 l/m 4,7 km/h (1 Bft) N-NO 29 2 min 0,000 mm 4,0 UV-I 630 W/m 14,0 C 20,8 C 8,0 km/h (2 Bft) 100,00 %
02.08.2016 10:42 20,8 C 65 % 1017,6 hPa 0,0 l/m 2,8 km/h (1 Bft) N-NO 32 2 min 0,000 mm 4,2 UV-I 638 W/m 14,0 C 20,8 C 4,8 km/h (1 Bft) 100,00 %
02.08.2016 10:44 20,9 C 63 % 1017,6 hPa 0,0 l/m 3,3 km/h (1 Bft) O-NO 74 2 min 0,000 mm 4,3 UV-I 705 W/m 13,6 C 20,9 C 4,8 km/h (1 Bft) 100,00 %
02.08.2016 10:46 20,9 C 65 % 1017,7 hPa 0,0 l/m 5,7 km/h (1 Bft) NO 53 2 min 0,000 mm 4,1 UV-I 654 W/m 14,1 C 20,9 C 9,7 km/h (2 Bft) 100,00 %
02.08.2016 10:48 20,9 C 63 % 1017,7 hPa 0,0 l/m 5,0 km/h (1 Bft) N-NO 31 2 min 0,000 mm 4,3 UV-I 713 W/m 13,6 C 20,9 C 8,0 km/h (2 Bft) 100,00 %
02.08.2016 10:50 20,8 C 63 % 1017,6 hPa 0,0 l/m 3,0 km/h (1 Bft) N-NO 21 2 min 0,000 mm 4,2 UV-I 679 W/m 13,5 C 20,8 C 4,8 km/h (1 Bft) 100,00 %
02.08.2016 10:52 20,8 C 63 % 1017,6 hPa 0,0 l/m 2,3 km/h (1 Bft) N 5 2 min 0,000 mm 4,5 UV-I 771 W/m 13,5 C 20,8 C 4,8 km/h (1 Bft) 100,00 %
02.08.2016 10:54 20,9 C 64 % 1017,5 hPa 0,0 l/m 1,3 km/h (1 Bft) N-NW 329 2 min 0,000 mm 4,2 UV-I 740 W/m 13,8 C 20,9 C 3,2 km/h (1 Bft) 100,00 %
02.08.2016 10:56 20,8 C 64 % 1017,5 hPa 0,0 l/m 1,2 km/h (1 Bft) N 5 2 min 0,000 mm 4,0 UV-I 708 W/m 13,7 C 20,8 C 3,2 km/h (1 Bft) 100,00 %
02.08.2016 10:58 20,9 C 66 % 1017,5 hPa 0,0 l/m 4,0 km/h (1 Bft) NO 51 2 min 0,000 mm 4,2 UV-I 689 W/m 14,3 C 20,9 C 8,0 km/h (2 Bft) 100,00 %
02.08.2016 11:00 21,1 C 66 % 1017,4 hPa 0,0 l/m 4,9 km/h (1 Bft) O-NO 76 2 min 0,381 mm 4,6 UV-I 693 W/m 14,5 C 21,1 C 8,0 km/h (2 Bft) 100,00 %
02.08.2016 11:02 21,2 C 63 % 1017,4 hPa 0,0 l/m 4,7 km/h (1 Bft) NO 55 2 min 0,000 mm 4,9 UV-I 781 W/m 13,9 C 21,2 C 8,0 km/h (2 Bft) 100,00 %
02.08.2016 11:04 21,2 C 61 % 1017,4 hPa 0,0 l/m 4,9 km/h (1 Bft) O-SO 107 2 min 0,000 mm 4,5 UV-I 801 W/m 13,4 C 21,2 C 9,7 km/h (2 Bft) 100,00 %
02.08.2016 11:06 21,1 C 63 % 1017,5 hPa 0,0 l/m 3,3 km/h (1 Bft) O 92 2 min 0,000 mm 4,8 UV-I 777 W/m 13,8 C 21,1 C 4,8 km/h (1 Bft) 100,00 %
02.08.2016 11:08 21,1 C 66 % 1017,4 hPa 0,0 l/m 3,9 km/h (1 Bft) NO 44 2 min 0,000 mm 4,9 UV-I 774 W/m 14,5 C 21,1 C 8,0 km/h (2 Bft) 100,00 %
02.08.2016 11:10 21,1 C 62 % 1017,4 hPa 0,0 l/m 4,4 km/h (1 Bft) O 84 2 min 0,000 mm 4,9 UV-I 782 W/m 13,5 C 21,1 C 9,7 km/h (2 Bft) 100,00 %
02.08.2016 11:12 21,2 C 62 % 1017,4 hPa 0,0 l/m 6,1 km/h (2 Bft) O-NO 78 2 min 0,000 mm 5,0 UV-I 810 W/m 13,6 C 21,2 C 8,0 km/h (2 Bft) 100,00 %
02.08.2016 11:14 21,4 C 61 % 1017,3 hPa 0,0 l/m 3,8 km/h (1 Bft) NO 43 2 min 0,000 mm 4,4 UV-I 620 W/m 13,6 C 21,4 C 8,0 km/h (2 Bft) 100,00 %
02.08.2016 11:16 21,4 C 64 % 1017,3 hPa 0,0 l/m 2,5 km/h (1 Bft) N-NO 32 2 min 0,000 mm 4,7 UV-I 523 W/m 14,3 C 21,4 C 4,8 km/h (1 Bft) 100,00 %
02.08.2016 11:18 21,4 C 61 % 1017,3 hPa 0,0 l/m 5,2 km/h (1 Bft) N-NO 30 2 min 0,000 mm 5,1 UV-I 810 W/m 13,6 C 21,4 C 9,7 km/h (2 Bft) 100,00 %
02.08.2016 11:20 21,7 C 59 % 1017,3 hPa 0,0 l/m 2,8 km/h (1 Bft) N 355 2 min 0,000 mm 5,2 UV-I 809 W/m 13,3 C 21,7 C 6,4 km/h (2 Bft) 98,00 %
02.08.2016 11:22 21,7 C 60 % 1017,3 hPa 0,0 l/m 1,9 km/h (1 Bft) N-NW 327 2 min 0,000 mm 5,2 UV-I 800 W/m 13,6 C 21,7 C 4,8 km/h (1 Bft) 100,00 %
02.08.2016 11:24 21,7 C 59 % 1017,2 hPa 0,0 l/m 2,9 km/h (1 Bft) N 11 2 min 0,000 mm 5,0 UV-I 803 W/m 13,3 C 21,7 C 4,8 km/h (1 Bft) 100,00 %
02.08.2016 11:26 21,7 C 62 % 1017,2 hPa 0,0 l/m 3,4 km/h (1 Bft) NO 34 2 min 0,000 mm 4,2 UV-I 659 W/m 14,1 C 21,7 C 6,4 km/h (2 Bft) 100,00 %
02.08.2016 11:28 21,9 C 62 % 1017,2 hPa 0,0 l/m 4,2 km/h (1 Bft) NO 36 0 min 0,000 mm 4,7 UV-I 368 W/m 14,3 C 21,9 C 6,4 km/h (2 Bft) 100,00 %
02.08.2016 11:30 22,1 C 60 % 1017,2 hPa 0,0 l/m 2,2 km/h (1 Bft) SO 142 2 min 0,000 mm 5,3 UV-I 734 W/m 14,0 C 22,1 C 4,8 km/h (1 Bft) 100,00 %
02.08.2016 11:32 22,1 C 59 % 1017,2 hPa 0,0 l/m 6,2 km/h (2 Bft) O-SO 122 2 min 0,000 mm 5,2 UV-I 889 W/m 13,7 C 22,1 C 9,7 km/h (2 Bft) 98,00 %
02.08.2016 11:34 21,9 C 57 % 1017,2 hPa 0,0 l/m 2,1 km/h (1 Bft) O-SO 122 2 min 0,000 mm 5,0 UV-I 642 W/m 13,0 C 21,9 C 4,8 km/h (1 Bft) 100,00 %
02.08.2016 11:36 21,9 C 58 % 1017,2 hPa 0,0 l/m 1,3 km/h (1 Bft) O-SO 122 2 min 0,000 mm 5,1 UV-I 613 W/m 13,3 C 21,9 C 4,8 km/h (1 Bft) 100,00 %
02.08.2016 11:38 21,8 C 59 % 1017,2 hPa 0,0 l/m 2,2 km/h (1 Bft) S-SO 149 2 min 0,000 mm 5,1 UV-I 616 W/m 13,4 C 21,8 C 4,8 km/h (1 Bft) 97,87 %
02.08.2016 11:40 21,8 C 59 % 1017,2 hPa 0,0 l/m 7,9 km/h (2 Bft) S-SW 192 2 min 0,000 mm 5,2 UV-I 719 W/m 13,4 C 21,3 C 11,3 km/h (2 Bft) 100,00 %
02.08.2016 11:42 21,8 C 60 % 1017,2 hPa 0,0 l/m 3,2 km/h (1 Bft) SW 216 2 min 0,000 mm 5,3 UV-I 739 W/m 13,7 C 21,8 C 9,7 km/h (2 Bft) 98,21 %
02.08.2016 11:44 22,0 C 60 % 1017,2 hPa 0,0 l/m 1,5 km/h (1 Bft) SW 223 2 min 0,000 mm 5,3 UV-I 747 W/m 13,9 C 22,0 C 3,2 km/h (1 Bft) 97,92 %
02.08.2016 11:46 22,1 C 57 % 1017,2 hPa 0,0 l/m 2,5 km/h (1 Bft) SW 221 2 min 0,000 mm 5,4 UV-I 779 W/m 13,2 C 22,1 C 8,0 km/h (2 Bft) 97,37 %
02.08.2016 11:48 22,2 C 59 % 1017,2 hPa 0,0 l/m 4,4 km/h (1 Bft) S-SW 201 2 min 0,000 mm 5,5 UV-I 758 W/m 13,8 C 22,2 C 8,0 km/h (2 Bft) 95,74 %
02.08.2016 11:50 22,2 C 59 % 1017,2 hPa 0,0 l/m 2,5 km/h (1 Bft) S-SW 209 2 min 0,000 mm 5,6 UV-I 789 W/m 13,8 C 22,2 C 4,8 km/h (1 Bft) 98,11 %
02.08.2016 11:52 22,3 C 57 % 1017,2 hPa 0,0 l/m 5,8 km/h (2 Bft) SW 232 2 min 0,000 mm 5,6 UV-I 791 W/m 13,4 C 22,3 C 11,3 km/h (2 Bft) 97,37 %
02.08.2016 11:54 22,3 C 57 % 1017,2 hPa 0,0 l/m 3,0 km/h (1 Bft) S 189 2 min 0,000 mm 5,5 UV-I 754 W/m 13,4 C 22,3 C 12,9 km/h (3 Bft) 96,23 %
02.08.2016 11:56 22,1 C 54 % 1017,2 hPa 0,0 l/m 7,4 km/h (2 Bft) S 191 2 min 0,000 mm 5,3 UV-I 725 W/m 12,3 C 21,8 C 11,3 km/h (2 Bft) 97,73 %
02.08.2016 11:58 22,1 C 59 % 1017,1 hPa 0,0 l/m 7,2 km/h (2 Bft) S-SW 196 2 min 0,000 mm 5,4 UV-I 743 W/m 13,7 C 21,8 C 11,3 km/h (2 Bft) 97,87 %
02.08.2016 12:00 22,2 C 60 % 1017,1 hPa 0,0 l/m 2,9 km/h (1 Bft) W-SW 241 2 min 0,000 mm 5,5 UV-I 763 W/m 14,1 C 22,2 C 6,4 km/h (2 Bft) 98,00 %
02.08.2016 12:02 22,2 C 56 % 1017,0 hPa 0,0 l/m 1,9 km/h (1 Bft) W-SW 242 2 min 0,457 mm 5,7 UV-I 780 W/m 13,0 C 22,2 C 6,4 km/h (2 Bft) 97,73 %
02.08.2016 12:04 22,1 C 55 % 1017,0 hPa 0,0 l/m 0,8 km/h (0 Bft) S-SO 158 2 min 0,000 mm 5,7 UV-I 789 W/m 12,6 C 22,1 C 3,2 km/h (1 Bft) 96,00 %
02.08.2016 12:06 22,0 C 55 % 1017,0 hPa 0,0 l/m 1,1 km/h (1 Bft) S-SO 158 2 min 0,000 mm 5,8 UV-I 818 W/m 12,5 C 22,0 C 3,2 km/h (1 Bft) 97,78 %
02.08.2016 12:08 22,0 C 57 % 1017,0 hPa 0,0 l/m 1,2 km/h (1 Bft) S-SO 155 2 min 0,000 mm 6,0 UV-I 828 W/m 13,1 C 22,0 C 4,8 km/h (1 Bft) 97,37 %
02.08.2016 12:10 22,1 C 54 % 1016,9 hPa 0,0 l/m 2,8 km/h (1 Bft) S-SO 148 2 min 0,000 mm 5,9 UV-I 817 W/m 12,3 C 22,1 C 4,8 km/h (1 Bft) 94,12 %
02.08.2016 12:12 22,2 C 55 % 1016,9 hPa 0,0 l/m 1,9 km/h (1 Bft) S-SO 159 2 min 0,000 mm 5,9 UV-I 810 W/m 12,7 C 22,2 C 6,4 km/h (2 Bft) 98,15 %
02.08.2016 12:14 22,4 C 55 % 1016,9 hPa 0,0 l/m 3,9 km/h (1 Bft) W-NW 288 2 min 0,000 mm 6,0 UV-I 816 W/m 12,9 C 22,4 C 9,7 km/h (2 Bft) 97,87 %
02.08.2016 12:16 22,6 C 55 % 1016,9 hPa 0,0 l/m 6,9 km/h (2 Bft) NW 323 2 min 0,000 mm 6,1 UV-I 826 W/m 13,1 C 22,4 C 12,9 km/h (3 Bft) 98,00 %
02.08.2016 12:18 22,6 C 55 % 1016,9 hPa 0,0 l/m 3,1 km/h (1 Bft) W-NW 297 2 min 0,000 mm 6,1 UV-I 823 W/m 13,1 C 22,6 C 11,3 km/h (2 Bft) 97,22 %
02.08.2016 12:20 22,7 C 55 % 1016,9 hPa 0,0 l/m 1,3 km/h (1 Bft) NW 323 2 min 0,000 mm 6,1 UV-I 827 W/m 13,2 C 22,7 C 3,2 km/h (1 Bft) 94,00 %
02.08.2016 12:22 22,9 C 55 % 1016,9 hPa 0,0 l/m 3,3 km/h (1 Bft) NO 34 2 min 0,000 mm 6,1 UV-I 823 W/m 13,4 C 22,9 C 6,4 km/h (2 Bft) 96,15 %
02.08.2016 12:24 23,1 C 52 % 1016,8 hPa 0,0 l/m 4,6 km/h (1 Bft) O-NO 74 2 min 0,000 mm 6,1 UV-I 825 W/m 12,7 C 23,1 C 9,7 km/h (2 Bft) 100,00 %
02.08.2016 12:26 23,1 C 56 % 1016,8 hPa 0,0 l/m 1,7 km/h (1 Bft) N-NO 20 2 min 0,000 mm 6,3 UV-I 863 W/m 13,8 C 23,1 C 4,8 km/h (1 Bft) 100,00 %
02.08.2016 12:28 22,9 C 52 % 1016,8 hPa 0,0 l/m 2,8 km/h (1 Bft) O-SO 107 2 min 0,000 mm 6,1 UV-I 860 W/m 12,5 C 22,9 C 4,8 km/h (1 Bft) 97,87 %
02.08.2016 12:30 22,9 C 53 % 1016,7 hPa 0,0 l/m 4,5 km/h (1 Bft) O-SO 123 2 min 0,000 mm 5,0 UV-I 717 W/m 12,8 C 22,9 C 6,4 km/h (2 Bft) 95,74 %
02.08.2016 12:32 22,9 C 55 % 1016,8 hPa 0,0 l/m 2,0 km/h (1 Bft) S-SW 200 2 min 0,000 mm 4,7 UV-I 515 W/m 13,4 C 22,9 C 6,4 km/h (2 Bft) 100,00 %
02.08.2016 12:34 22,8 C 54 % 1016,8 hPa 0,0 l/m 1,7 km/h (1 Bft) S-SW 213 0 min 0,000 mm 4,4 UV-I 445 W/m 13,0 C 22,8 C 4,8 km/h (1 Bft) 100,00 %
02.08.2016 12:36 22,7 C 56 % 1016,8 hPa 0,0 l/m 3,5 km/h (1 Bft) S-SO 167 0 min 0,000 mm 4,4 UV-I 425 W/m 13,5 C 22,7 C 8,0 km/h (2 Bft) 100,00 %
02.08.2016 12:38 22,6 C 53 % 1016,8 hPa 0,0 l/m 2,6 km/h (1 Bft) S-SO 148 2 min 0,000 mm 4,9 UV-I 521 W/m 12,5 C 22,6 C 6,4 km/h (2 Bft) 100,00 %
02.08.2016 12:40 22,8 C 55 % 1016,8 hPa 0,0 l/m 8,0 km/h (2 Bft) S-SO 159 2 min 0,000 mm 5,5 UV-I 647 W/m 13,3 C 22,3 C 14,5 km/h (3 Bft) 100,00 %
02.08.2016 12:42 22,9 C 52 % 1016,8 hPa 0,0 l/m 5,6 km/h (1 Bft) S-SO 148 2 min 0,000 mm 5,0 UV-I 485 W/m 12,5 C 22,9 C 11,3 km/h (2 Bft) 100,00 %
02.08.2016 12:44 22,9 C 51 % 1016,8 hPa 0,0 l/m 3,6 km/h (1 Bft) O 80 0 min 0,000 mm 4,9 UV-I 264 W/m 12,2 C 22,9 C 4,8 km/h (1 Bft) 100,00 %
02.08.2016 12:46 22,8 C 53 % 1016,8 hPa 0,0 l/m 0,9 km/h (0 Bft) O 80 0 min 0,000 mm 5,5 UV-I 425 W/m 12,7 C 22,8 C 3,2 km/h (1 Bft) 97,87 %
02.08.2016 12:48 23,1 C 54 % 1016,7 hPa 0,0 l/m 1,2 km/h (1 Bft) W-NW 299 2 min 0,000 mm 5,7 UV-I 970 W/m 13,3 C 23,1 C 4,8 km/h (1 Bft) 97,87 %
02.08.2016 12:50 23,1 C 52 % 1016,7 hPa 0,0 l/m 2,0 km/h (1 Bft) NW 317 2 min 0,000 mm 4,1 UV-I 882 W/m 12,7 C 23,1 C 4,8 km/h (1 Bft) 98,11 %
02.08.2016 12:52 22,9 C 54 % 1016,8 hPa 0,0 l/m 1,8 km/h (1 Bft) S-SO 164 0 min 0,000 mm 4,8 UV-I 330 W/m 13,1 C 22,9 C 3,2 km/h (1 Bft) 100,00 %
02.08.2016 12:54 22,8 C 53 % 1016,7 hPa 0,0 l/m 3,8 km/h (1 Bft) SW 231 0 min 0,000 mm 4,3 UV-I 329 W/m 12,7 C 22,8 C 6,4 km/h (2 Bft) 100,00 %
02.08.2016 12:56 22,8 C 55 % 1016,7 hPa 0,0 l/m 1,2 km/h (1 Bft) S-SO 159 0 min 0,000 mm 3,8 UV-I 369 W/m 13,3 C 22,8 C 3,2 km/h (1 Bft) 100,00 %
02.08.2016 12:58 22,7 C 52 % 1016,7 hPa 0,0 l/m 2,1 km/h (1 Bft) S-SO 163 0 min 0,000 mm 3,7 UV-I 380 W/m 12,3 C 22,7 C 6,4 km/h (2 Bft) 97,87 %
02.08.2016 13:00 22,6 C 53 % 1016,7 hPa 0,0 l/m 2,5 km/h (1 Bft) SW 229 0 min 0,406 mm 3,4 UV-I 339 W/m 12,5 C 22,6 C 6,4 km/h (2 Bft) 100,00 %
02.08.2016 13:02 22,6 C 53 % 1016,8 hPa 0,0 l/m 3,5 km/h (1 Bft) S 190 0 min 0,000 mm 3,1 UV-I 320 W/m 12,5 C 22,6 C 4,8 km/h (1 Bft) 100,00 %
02.08.2016 13:04 22,6 C 53 % 1016,7 hPa 0,0 l/m 3,8 km/h (1 Bft) S-SW 196 0 min 0,000 mm 2,9 UV-I 322 W/m 12,5 C 22,6 C 4,8 km/h (1 Bft) 100,00 %
02.08.2016 13:06 22,6 C 55 % 1016,7 hPa 0,0 l/m 4,4 km/h (1 Bft) SW 230 0 min 0,000 mm 3,1 UV-I 336 W/m 13,1 C 22,6 C 8,0 km/h (2 Bft) 98,00 %
02.08.2016 13:08 22,6 C 54 % 1016,7 hPa 0,0 l/m 3,6 km/h (1 Bft) W-SW 243 0 min 0,000 mm 3,2 UV-I 346 W/m 12,8 C 22,6 C 6,4 km/h (2 Bft) 100,00 %
02.08.2016 13:10 22,7 C 54 % 1016,7 hPa 0,0 l/m 7,0 km/h (2 Bft) W-SW 242 0 min 0,000 mm 3,2 UV-I 336 W/m 12,9 C 22,5 C 12,9 km/h (3 Bft) 100,00 %
02.08.2016 13:12 22,7 C 50 % 1016,7 hPa 0,0 l/m 4,7 km/h (1 Bft) W 263 0 min 0,000 mm 3,2 UV-I 339 W/m 11,7 C 22,7 C 8,0 km/h (2 Bft) 100,00 %
02.08.2016 13:14 22,7 C 51 % 1016,7 hPa 0,0 l/m 3,3 km/h (1 Bft) W 273 0 min 0,000 mm 3,3 UV-I 326 W/m 12,0 C 22,7 C 6,4 km/h (2 Bft) 100,00 %
02.08.2016 13:16 22,6 C 51 % 1016,7 hPa 0,0 l/m 2,7 km/h (1 Bft) S 182 0 min 0,000 mm 3,2 UV-I 331 W/m 11,9 C 22,6 C 4,8 km/h (1 Bft) 100,00 %
02.08.2016 13:18 22,7 C 53 % 1016,6 hPa 0,0 l/m 6,0 km/h (2 Bft) SW 224 0 min 0,000 mm 3,8 UV-I 319 W/m 12,6 C 22,7 C 9,7 km/h (2 Bft) 100,00 %
02.08.2016 13:20 22,7 C 50 % 1016,6 hPa 0,0 l/m 2,6 km/h (1 Bft) SW 224 0 min 0,000 mm 4,6 UV-I 325 W/m 11,7 C 22,7 C 4,8 km/h (1 Bft) 100,00 %
02.08.2016 13:22 23,0 C 56 % 1016,5 hPa 0,0 l/m 4,2 km/h (1 Bft) SW 227 2 min 0,000 mm 5,9 UV-I 874 W/m 13,7 C 23,0 C 6,4 km/h (2 Bft) 100,00 %
02.08.2016 13:24 23,4 C 53 % 1016,5 hPa 0,0 l/m 7,9 km/h (2 Bft) S-SW 212 2 min 0,000 mm 6,6 UV-I 1154 W/m 13,3 C 22,9 C 12,9 km/h (3 Bft) 100,00 %
02.08.2016 13:26 23,6 C 52 % 1016,4 hPa 0,0 l/m 4,6 km/h (1 Bft) S-SW 211 2 min 0,000 mm 5,2 UV-I 1019 W/m 13,2 C 23,6 C 6,4 km/h (2 Bft) 100,00 %
02.08.2016 13:28 23,6 C 47 % 1016,4 hPa 0,0 l/m 10,5 km/h (2 Bft) W-NW 298 0 min 0,000 mm 3,9 UV-I 423 W/m 11,6 C 22,5 C 16,1 km/h (3 Bft) 100,00 %
02.08.2016 13:30 23,4 C 48 % 1016,4 hPa 0,0 l/m 4,3 km/h (1 Bft) S-SW 201 0 min 0,000 mm 3,1 UV-I 367 W/m 11,8 C 23,4 C 6,4 km/h (2 Bft) 100,00 %
02.08.2016 13:32 23,2 C 46 % 1016,4 hPa 0,0 l/m 7,3 km/h (2 Bft) S 190 0 min 0,000 mm 3,0 UV-I 338 W/m 10,9 C 22,9 C 11,3 km/h (2 Bft) 100,00 %
02.08.2016 13:34 23,1 C 46 % 1016,4 hPa 0,0 l/m 4,8 km/h (1 Bft) S-SW 196 0 min 0,000 mm 2,8 UV-I 305 W/m 10,8 C 23,1 C 8,0 km/h (2 Bft) 100,00 %
02.08.2016 13:36 22,9 C 51 % 1016,4 hPa 0,0 l/m 2,3 km/h (1 Bft) SW 219 0 min 0,000 mm 2,6 UV-I 267 W/m 12,2 C 22,9 C 6,4 km/h (2 Bft) 100,00 %
02.08.2016 13:38 22,8 C 50 % 1016,3 hPa 0,0 l/m 5,3 km/h (1 Bft) S-SW 192 0 min 0,000 mm 2,3 UV-I 238 W/m 11,8 C 22,8 C 8,0 km/h (2 Bft) 98,11 %
02.08.2016 13:40 22,7 C 52 % 1016,3 hPa 0,0 l/m 3,3 km/h (1 Bft) NW 315 0 min 0,000 mm 2,3 UV-I 236 W/m 12,3 C 22,7 C 4,8 km/h (1 Bft) 100,00 %
02.08.2016 13:42 22,7 C 47 % 1016,3 hPa 0,0 l/m 3,7 km/h (1 Bft) W 273 0 min 0,000 mm 2,4 UV-I 257 W/m 10,8 C 22,7 C 6,4 km/h (2 Bft) 97,87 %
02.08.2016 13:44 22,7 C 47 % 1016,3 hPa 0,0 l/m 2,9 km/h (1 Bft) W 261 0 min 0,000 mm 2,9 UV-I 291 W/m 10,8 C 22,7 C 4,8 km/h (1 Bft) 95,74 %
02.08.2016 13:46 22,7 C 48 % 1016,3 hPa 0,0 l/m 2,8 km/h (1 Bft) SW 225 0 min 0,000 mm 3,4 UV-I 324 W/m 11,1 C 22,7 C 4,8 km/h (1 Bft) 97,87 %
02.08.2016 13:48 22,8 C 51 % 1016,2 hPa 0,0 l/m 2,8 km/h (1 Bft) W-NW 298 0 min 0,000 mm 3,7 UV-I 307 W/m 12,1 C 22,8 C 6,4 km/h (2 Bft) 96,00 %
02.08.2016 13:50 22,9 C 50 % 1016,2 hPa 0,0 l/m 3,6 km/h (1 Bft) W 259 2 min 0,000 mm 5,8 UV-I 593 W/m 11,9 C 22,9 C 9,7 km/h (2 Bft) 98,00 %
02.08.2016 13:52 23,2 C 50 % 1016,2 hPa 0,0 l/m 3,3 km/h (1 Bft) W-SW 253 2 min 0,000 mm 5,8 UV-I 715 W/m 12,2 C 23,2 C 6,4 km/h (2 Bft) 96,00 %
02.08.2016 13:54 23,3 C 48 % 1016,2 hPa 0,0 l/m 3,8 km/h (1 Bft) W 273 2 min 0,000 mm 5,5 UV-I 718 W/m 11,7 C 23,3 C 9,7 km/h (2 Bft) 97,56 %
02.08.2016 13:56 23,4 C 49 % 1016,1 hPa 0,0 l/m 6,7 km/h (2 Bft) W 264 2 min 0,000 mm 5,3 UV-I 742 W/m 12,1 C 23,3 C 11,3 km/h (2 Bft) 98,11 %
02.08.2016 13:58 23,4 C 48 % 1016,2 hPa 0,0 l/m 3,9 km/h (1 Bft) W 277 2 min 0,000 mm 5,2 UV-I 742 W/m 11,8 C 23,4 C 6,4 km/h (2 Bft) 97,87 %
02.08.2016 14:00 23,3 C 48 % 1016,1 hPa 0,0 l/m 2,5 km/h (1 Bft) W-NW 297 0 min 0,305 mm 3,7 UV-I 404 W/m 11,7 C 23,3 C 4,8 km/h (1 Bft) 97,37 %
02.08.2016 14:02 23,3 C 49 % 1016,1 hPa 0,0 l/m 2,7 km/h (1 Bft) W 267 0 min 0,000 mm 3,8 UV-I 381 W/m 12,0 C 23,3 C 4,8 km/h (1 Bft) 98,11 %
02.08.2016 14:04 23,3 C 50 % 1016,1 hPa 0,0 l/m 3,7 km/h (1 Bft) S-SW 194 0 min 0,000 mm 3,8 UV-I 421 W/m 12,3 C 23,3 C 6,4 km/h (2 Bft) 97,37 %
02.08.2016 14:06 23,5 C 50 % 1016,0 hPa 0,0 l/m 6,6 km/h (2 Bft) W-SW 246 0 min 0,000 mm 5,7 UV-I 417 W/m 12,5 C 23,4 C 12,9 km/h (3 Bft) 96,43 %
02.08.2016 14:08 23,8 C 49 % 1016,1 hPa 0,0 l/m 5,7 km/h (1 Bft) SW 229 2 min 0,000 mm 5,8 UV-I 607 W/m 12,4 C 23,8 C 11,3 km/h (2 Bft) 97,73 %
02.08.2016 14:10 23,9 C 44 % 1016,0 hPa 0,0 l/m 2,9 km/h (1 Bft) W-SW 238 2 min 0,000 mm 5,3 UV-I 1004 W/m 10,9 C 23,9 C 6,4 km/h (2 Bft) 95,12 %
02.08.2016 14:12 23,9 C 47 % 1015,9 hPa 0,0 l/m 5,3 km/h (1 Bft) S-SW 200 2 min 0,000 mm 5,1 UV-I 1004 W/m 11,9 C 23,9 C 6,4 km/h (2 Bft) 95,74 %
02.08.2016 14:14 23,9 C 48 % 1015,9 hPa 0,0 l/m 6,0 km/h (2 Bft) SW 220 2 min 0,000 mm 4,6 UV-I 1004 W/m 12,2 C 23,9 C 9,7 km/h (2 Bft) 98,00 %
02.08.2016 14:16 23,7 C 48 % 1015,9 hPa 0,0 l/m 6,1 km/h (2 Bft) S-SW 206 2 min 0,000 mm 5,0 UV-I 640 W/m 12,0 C 23,7 C 8,0 km/h (2 Bft) 100,00 %
02.08.2016 14:18 23,7 C 46 % 1015,9 hPa 0,0 l/m 3,7 km/h (1 Bft) S 170 2 min 0,000 mm 5,9 UV-I 816 W/m 11,4 C 23,7 C 6,4 km/h (2 Bft) 96,08 %
02.08.2016 14:20 23,8 C 50 % 1015,9 hPa 0,0 l/m 6,3 km/h (2 Bft) W 267 2 min 0,000 mm 4,8 UV-I 718 W/m 12,7 C 23,8 C 12,9 km/h (3 Bft) 100,00 %
02.08.2016 14:22 23,9 C 48 % 1015,9 hPa 0,0 l/m 4,4 km/h (1 Bft) S-SW 211 2 min 0,000 mm 4,5 UV-I 536 W/m 12,2 C 23,9 C 6,4 km/h (2 Bft) 100,00 %
02.08.2016 14:24 23,9 C 45 % 1015,9 hPa 0,0 l/m 7,4 km/h (2 Bft) SW 226 2 min 0,000 mm 4,1 UV-I 483 W/m 11,2 C 23,6 C 12,9 km/h (3 Bft) 98,00 %
02.08.2016 14:26 23,9 C 51 % 1015,9 hPa 0,0 l/m 7,8 km/h (2 Bft) S 181 2 min 0,000 mm 4,4 UV-I 577 W/m 13,1 C 23,5 C 14,5 km/h (3 Bft) 97,87 %
02.08.2016 14:28 24,0 C 48 % 1015,8 hPa 0,0 l/m 6,3 km/h (2 Bft) SW 220 2 min 0,000 mm 4,4 UV-I 599 W/m 12,3 C 24,0 C 12,9 km/h (3 Bft) 100,00 %
02.08.2016 14:30 23,9 C 46 % 1015,8 hPa 0,0 l/m 12,3 km/h (3 Bft) W-SW 256 2 min 0,000 mm 4,2 UV-I 560 W/m 11,6 C 22,5 C 17,7 km/h (3 Bft) 100,00 %
02.08.2016 14:32 23,9 C 46 % 1015,8 hPa 0,0 l/m 3,9 km/h (1 Bft) S 171 2 min 0,000 mm 3,8 UV-I 628 W/m 11,6 C 23,9 C 8,0 km/h (2 Bft) 100,00 %
02.08.2016 14:34 23,8 C 47 % 1015,8 hPa 0,0 l/m 8,7 km/h (2 Bft) S-SW 195 2 min 0,000 mm 3,0 UV-I 484 W/m 11,8 C 23,2 C 14,5 km/h (3 Bft) 100,00 %
02.08.2016 14:36 23,8 C 46 % 1015,8 hPa 0,0 l/m 8,8 km/h (2 Bft) S-SW 212 0 min 0,000 mm 2,4 UV-I 319 W/m 11,5 C 23,1 C 14,5 km/h (3 Bft) 100,00 %
02.08.2016 14:38 23,6 C 49 % 1015,8 hPa 0,0 l/m 8,4 km/h (2 Bft) S 190 0 min 0,000 mm 2,0 UV-I 277 W/m 12,2 C 23,0 C 16,1 km/h (3 Bft) 100,00 %
02.08.2016 14:40 23,6 C 48 % 1015,8 hPa 0,0 l/m 7,0 km/h (2 Bft) S-SW 211 0 min 0,000 mm 1,9 UV-I 265 W/m 11,9 C 23,4 C 14,5 km/h (3 Bft) 100,00 %
02.08.2016 14:42 23,4 C 48 % 1015,8 hPa 0,0 l/m 3,7 km/h (1 Bft) SW 225 0 min 0,000 mm 2,1 UV-I 288 W/m 11,8 C 23,4 C 6,4 km/h (2 Bft) 98,04 %
02.08.2016 14:44 23,4 C 48 % 1015,8 hPa 0,0 l/m 5,5 km/h (1 Bft) W 260 0 min 0,000 mm 2,4 UV-I 316 W/m 11,8 C 23,4 C 8,0 km/h (2 Bft) 100,00 %
02.08.2016 14:46 23,5 C 51 % 1015,8 hPa 0,0 l/m 6,2 km/h (2 Bft) W-SW 245 0 min 0,000 mm 2,6 UV-I 343 W/m 12,8 C 23,5 C 14,5 km/h (3 Bft) 95,12 %
02.08.2016 14:48 23,6 C 49 % 1015,7 hPa 0,0 l/m 8,7 km/h (2 Bft) W 269 0 min 0,000 mm 2,7 UV-I 351 W/m 12,2 C 22,9 C 14,5 km/h (3 Bft) 100,00 %
02.08.2016 14:50 23,6 C 49 % 1015,7 hPa 0,0 l/m 5,4 km/h (1 Bft) W-SW 244 0 min 0,000 mm 2,8 UV-I 355 W/m 12,2 C 23,6 C 11,3 km/h (2 Bft) 98,11 %
02.08.2016 14:52 23,7 C 52 % 1015,7 hPa 0,0 l/m 1,1 km/h (1 Bft) W-SW 253 0 min 0,000 mm 2,8 UV-I 353 W/m 13,2 C 23,7 C 4,8 km/h (1 Bft) 97,87 %
02.08.2016 14:54 23,7 C 51 % 1015,7 hPa 0,0 l/m 8,6 km/h (2 Bft) W 265 0 min 0,000 mm 3,0 UV-I 359 W/m 13,0 C 23,1 C 12,9 km/h (3 Bft) 100,00 %
02.08.2016 14:56 23,8 C 49 % 1015,6 hPa 0,0 l/m 10,5 km/h (2 Bft) W 270 0 min 0,000 mm 3,3 UV-I 379 W/m 12,4 C 22,7 C 17,7 km/h (3 Bft) 100,00 %
02.08.2016 14:58 23,8 C 50 % 1015,6 hPa 0,0 l/m 6,3 km/h (2 Bft) SW 232 0 min 0,000 mm 3,9 UV-I 417 W/m 12,7 C 23,8 C 11,3 km/h (2 Bft) 100,00 %
02.08.2016 15:00 23,9 C 53 % 1015,6 hPa 0,0 l/m 6,2 km/h (2 Bft) W 271 2 min 0,000 mm 4,3 UV-I 576 W/m 13,7 C 23,9 C 14,5 km/h (3 Bft) 97,73 %
02.08.2016 15:02 24,2 C 47 % 1015,6 hPa 0,0 l/m 7,1 km/h (2 Bft) W 271 2 min 0,381 mm 4,4 UV-I 610 W/m 12,2 C 24,0 C 17,7 km/h (3 Bft) 100,00 %
02.08.2016 15:04 24,4 C 50 % 1015,6 hPa 0,0 l/m 5,3 km/h (1 Bft) SW 222 2 min 0,000 mm 4,0 UV-I 711 W/m 13,3 C 24,4 C 14,5 km/h (3 Bft) 100,00 %
02.08.2016 15:06 24,7 C 48 % 1015,5 hPa 0,0 l/m 10,9 km/h (2 Bft) W-SW 252 2 min 0,000 mm 5,2 UV-I 894 W/m 12,9 C 23,6 C 22,5 km/h (4 Bft) 100,00 %
02.08.2016 15:08 24,8 C 48 % 1015,5 hPa 0,0 l/m 8,0 km/h (2 Bft) S-SW 198 2 min 0,000 mm 5,1 UV-I 823 W/m 13,0 C 24,4 C 12,9 km/h (3 Bft) 100,00 %
02.08.2016 15:10 25,0 C 47 % 1015,5 hPa 0,0 l/m 8,7 km/h (2 Bft) W 259 2 min 0,000 mm 5,0 UV-I 784 W/m 12,9 C 24,4 C 17,7 km/h (3 Bft) 100,00 %
02.08.2016 15:12 25,0 C 46 % 1015,5 hPa 0,0 l/m 10,6 km/h (2 Bft) W-NW 291 2 min 0,000 mm 5,0 UV-I 851 W/m 12,6 C 24,0 C 17,7 km/h (3 Bft) 100,00 %
02.08.2016 15:14 25,0 C 46 % 1015,5 hPa 0,0 l/m 10,7 km/h (2 Bft) S-SW 212 2 min 0,000 mm 4,9 UV-I 860 W/m 12,6 C 24,0 C 17,7 km/h (3 Bft) 100,00 %
02.08.2016 15:16 24,9 C 46 % 1015,5 hPa 0,0 l/m 10,5 km/h (2 Bft) S 177 2 min 0,000 mm 4,2 UV-I 850 W/m 12,5 C 24,0 C 16,1 km/h (3 Bft) 100,00 %
02.08.2016 15:18 24,7 C 45 % 1015,5 hPa 0,0 l/m 15,1 km/h (3 Bft) W-SW 246 2 min 0,000 mm 3,5 UV-I 560 W/m 12,0 C 22,9 C 20,9 km/h (4 Bft) 100,00 %
02.08.2016 15:20 24,6 C 47 % 1015,5 hPa 0,0 l/m 11,5 km/h (2 Bft) S-SW 212 0 min 0,000 mm 3,1 UV-I 404 W/m 12,5 C 23,4 C 17,7 km/h (3 Bft) 100,00 %
02.08.2016 15:22 24,3 C 45 % 1015,5 hPa 0,0 l/m 13,5 km/h (3 Bft) SW 226 0 min 0,000 mm 2,5 UV-I 308 W/m 11,6 C 22,7 C 24,1 km/h (4 Bft) 100,00 %
02.08.2016 15:24 24,1 C 46 % 1015,5 hPa 0,0 l/m 12,7 km/h (3 Bft) SW 219 0 min 0,000 mm 1,9 UV-I 236 W/m 11,7 C 22,6 C 20,9 km/h (4 Bft) 100,00 %
02.08.2016 15:26 23,9 C 46 % 1015,5 hPa 0,0 l/m 6,9 km/h (2 Bft) SW 223 0 min 0,000 mm 1,5 UV-I 195 W/m 11,6 C 23,8 C 12,9 km/h (3 Bft) 97,73 %
02.08.2016 15:28 23,8 C 49 % 1015,5 hPa 0,0 l/m 7,9 km/h (2 Bft) S-SW 196 0 min 0,000 mm 1,2 UV-I 157 W/m 12,4 C 23,4 C 12,9 km/h (3 Bft) 98,00 %
02.08.2016 15:30 23,6 C 48 % 1015,5 hPa 0,0 l/m 7,5 km/h (2 Bft) SW 234 0 min 0,000 mm 1,0 UV-I 138 W/m 11,9 C 23,3 C 12,9 km/h (3 Bft) 100,00 %
02.08.2016 15:32 23,4 C 49 % 1015,5 hPa 0,0 l/m 11,7 km/h (2 Bft) SW 232 0 min 0,000 mm 1,0 UV-I 135 W/m 12,1 C 22,0 C 22,5 km/h (4 Bft) 98,00 %
02.08.2016 15:34 23,3 C 48 % 1015,5 hPa 0,0 l/m 13,8 km/h (3 Bft) W-SW 242 0 min 0,000 mm 1,0 UV-I 138 W/m 11,7 C 21,5 C 25,7 km/h (4 Bft) 100,00 %
02.08.2016 15:36 23,3 C 47 % 1015,5 hPa 0,0 l/m 12,9 km/h (3 Bft) SW 225 0 min 0,000 mm 1,1 UV-I 153 W/m 11,3 C 21,6 C 20,9 km/h (4 Bft) 98,18 %
02.08.2016 15:38 23,3 C 48 % 1015,5 hPa 0,0 l/m 12,9 km/h (3 Bft) SW 221 0 min 0,000 mm 1,2 UV-I 166 W/m 11,7 C 21,6 C 20,9 km/h (4 Bft) 97,22 %
02.08.2016 15:40 23,3 C 46 % 1015,5 hPa 0,0 l/m 11,7 km/h (2 Bft) SW 216 0 min 0,000 mm 1,2 UV-I 168 W/m 11,0 C 21,9 C 19,3 km/h (3 Bft) 96,00 %
02.08.2016 15:42 23,3 C 47 % 1015,5 hPa 0,0 l/m 12,4 km/h (3 Bft) SW 219 0 min 0,000 mm 1,2 UV-I 168 W/m 11,3 C 21,7 C 17,7 km/h (3 Bft) 98,11 %
02.08.2016 15:44 23,3 C 48 % 1015,4 hPa 0,0 l/m 10,8 km/h (2 Bft) W-SW 242 0 min 0,000 mm 1,1 UV-I 172 W/m 11,7 C 22,1 C 16,1 km/h (3 Bft) 98,00 %
02.08.2016 15:46 23,3 C 48 % 1015,5 hPa 0,0 l/m 7,3 km/h (2 Bft) SW 223 0 min 0,000 mm 1,2 UV-I 191 W/m 11,7 C 23,0 C 9,7 km/h (2 Bft) 96,00 %
02.08.2016 15:48 23,3 C 49 % 1015,4 hPa 0,0 l/m 9,5 km/h (2 Bft) SW 219 0 min 0,000 mm 1,5 UV-I 230 W/m 12,0 C 22,4 C 16,1 km/h (3 Bft) 95,12 %
02.08.2016 15:50 23,4 C 48 % 1015,4 hPa 0,0 l/m 9,6 km/h (2 Bft) S-SW 202 0 min 0,000 mm 1,7 UV-I 255 W/m 11,8 C 22,5 C 16,1 km/h (3 Bft) 98,00 %
02.08.2016 15:52 23,5 C 48 % 1015,4 hPa 0,0 l/m 8,9 km/h (2 Bft) W-SW 245 0 min 0,000 mm 1,7 UV-I 256 W/m 11,8 C 22,8 C 12,9 km/h (3 Bft) 98,00 %
02.08.2016 15:54 23,6 C 48 % 1015,4 hPa 0,0 l/m 11,1 km/h (2 Bft) W-SW 246 0 min 0,000 mm 1,8 UV-I 263 W/m 11,9 C 22,4 C 19,3 km/h (3 Bft) 94,74 %
02.08.2016 15:56 23,7 C 47 % 1015,4 hPa 0,0 l/m 10,7 km/h (2 Bft) W 272 0 min 0,000 mm 1,8 UV-I 274 W/m 11,7 C 22,6 C 14,5 km/h (3 Bft) 97,87 %
02.08.2016 15:58 23,7 C 48 % 1015,4 hPa 0,0 l/m 8,2 km/h (2 Bft) W-SW 252 0 min 0,000 mm 1,9 UV-I 289 W/m 12,0 C 23,2 C 14,5 km/h (3 Bft) 97,56 %
02.08.2016 16:00 23,8 C 46 % 1015,4 hPa 0,0 l/m 10,9 km/h (2 Bft) W 272 0 min 0,330 mm 1,9 UV-I 289 W/m 11,5 C 22,6 C 16,1 km/h (3 Bft) 96,43 %
02.08.2016 16:02 23,8 C 47 % 1015,4 hPa 0,0 l/m 7,8 km/h (2 Bft) W-SW 239 0 min 0,000 mm 1,9 UV-I 278 W/m 11,8 C 23,4 C 16,1 km/h (3 Bft) 97,37 %
02.08.2016 16:04 23,8 C 47 % 1015,4 hPa 0,0 l/m 8,4 km/h (2 Bft) SW 225 0 min 0,000 mm 1,8 UV-I 280 W/m 11,8 C 23,2 C 14,5 km/h (3 Bft) 96,43 %
02.08.2016 16:06 23,8 C 47 % 1015,4 hPa 0,0 l/m 7,8 km/h (2 Bft) W 262 0 min 0,000 mm 1,8 UV-I 279 W/m 11,8 C 23,4 C 12,9 km/h (3 Bft) 94,00 %
02.08.2016 16:08 23,8 C 45 % 1015,4 hPa 0,0 l/m 12,0 km/h (2 Bft) W 259 0 min 0,000 mm 1,8 UV-I 281 W/m 11,1 C 22,4 C 16,1 km/h (3 Bft) 95,74 %
02.08.2016 16:10 23,8 C 48 % 1015,4 hPa 0,0 l/m 5,2 km/h (1 Bft) W-SW 254 0 min 0,000 mm 1,7 UV-I 280 W/m 12,1 C 23,8 C 11,3 km/h (2 Bft) 97,14 %
02.08.2016 16:12 23,8 C 47 % 1015,4 hPa 0,0 l/m 6,6 km/h (2 Bft) W-NW 286 0 min 0,000 mm 1,7 UV-I 288 W/m 11,8 C 23,7 C 12,9 km/h (3 Bft) 100,00 %
02.08.2016 16:14 23,7 C 47 % 1015,4 hPa 0,0 l/m 6,5 km/h (2 Bft) W-NW 290 0 min 0,000 mm 1,7 UV-I 285 W/m 11,7 C 23,7 C 11,3 km/h (2 Bft) 95,12 %
02.08.2016 16:16 23,7 C 45 % 1015,3 hPa 0,0 l/m 6,7 km/h (2 Bft) W-SW 247 0 min 0,000 mm 1,7 UV-I 276 W/m 11,1 C 23,6 C 11,3 km/h (2 Bft) 100,00 %
02.08.2016 16:18 23,7 C 45 % 1015,3 hPa 0,0 l/m 8,8 km/h (2 Bft) W 271 0 min 0,000 mm 1,6 UV-I 265 W/m 11,1 C 23,0 C 14,5 km/h (3 Bft) 100,00 %
02.08.2016 16:20 23,7 C 48 % 1015,3 hPa 0,0 l/m 4,5 km/h (1 Bft) W-SW 242 0 min 0,000 mm 1,6 UV-I 258 W/m 12,0 C 23,7 C 8,0 km/h (2 Bft) 100,00 %
02.08.2016 16:22 23,7 C 48 % 1015,3 hPa 0,0 l/m 4,3 km/h (1 Bft) W-NW 288 0 min 0,000 mm 1,6 UV-I 266 W/m 12,0 C 23,7 C 12,9 km/h (3 Bft) 100,00 %
02.08.2016 16:25 23,7 C 49 % 1015,4 hPa 0,0 l/m 4,8 km/h (1 Bft) W-SW 247 0 min 0,000 mm 1,6 UV-I 262 W/m 12,3 C 23,7 C 12,9 km/h (3 Bft) 96,49 %
02.08.2016 16:30 23,7 C 46 % 1015,4 hPa 0,0 l/m 8,0 km/h (2 Bft) W-SW 247 0 min 0,000 mm 1,6 UV-I 278 W/m 11,4 C 23,2 C 16,1 km/h (3 Bft) 98,25 %
02.08.2016 16:35 23,8 C 50 % 1015,3 hPa 0,0 l/m 4,8 km/h (1 Bft) W-SW 247 0 min 0,000 mm 1,6 UV-I 303 W/m 12,7 C 23,8 C 9,7 km/h (2 Bft) 97,37 %
02.08.2016 16:40 24,0 C 48 % 1015,3 hPa 0,0 l/m 4,8 km/h (1 Bft) W 270 5 min 0,000 mm 1,9 UV-I 360 W/m 12,3 C 24,0 C 12,9 km/h (3 Bft) 97,37 %
02.08.2016 16:45 24,1 C 46 % 1015,3 hPa 0,0 l/m 8,0 km/h (2 Bft) W-SW 247 5 min 0,000 mm 1,9 UV-I 376 W/m 11,7 C 23,7 C 12,9 km/h (3 Bft) 97,37 %
02.08.2016 16:50 24,1 C 45 % 1015,2 hPa 0,0 l/m 8,0 km/h (2 Bft) W-SW 247 5 min 0,000 mm 1,7 UV-I 321 W/m 11,4 C 23,7 C 12,9 km/h (3 Bft) 99,12 %
02.08.2016 16:55 23,9 C 47 % 1015,2 hPa 0,0 l/m 6,4 km/h (2 Bft) W-SW 247 0 min 0,000 mm 1,4 UV-I 241 W/m 11,9 C 23,9 C 11,3 km/h (2 Bft) 99,12 %
02.08.2016 17:00 23,7 C 48 % 1015,2 hPa 0,0 l/m 6,4 km/h (2 Bft) W-SW 247 0 min 0,229 mm 1,0 UV-I 190 W/m 12,0 C 23,7 C 12,9 km/h (3 Bft) 100,00 %
02.08.2016 17:05 23,5 C 50 % 1015,2 hPa 0,0 l/m 3,2 km/h (1 Bft) W 270 0 min 0,000 mm 1,0 UV-I 186 W/m 12,5 C 23,5 C 6,4 km/h (2 Bft) 100,00 %
02.08.2016 17:10 23,4 C 47 % 1015,3 hPa 0,0 l/m 4,8 km/h (1 Bft) W-SW 247 0 min 0,000 mm 0,9 UV-I 192 W/m 11,4 C 23,4 C 11,3 km/h (2 Bft) 100,00 %
02.08.2016 17:15 23,3 C 50 % 1015,2 hPa 0,0 l/m 3,2 km/h (1 Bft) W-NW 292 0 min 0,000 mm 0,7 UV-I 139 W/m 12,3 C 23,3 C 6,4 km/h (2 Bft) 100,00 %
02.08.2016 17:20 23,2 C 51 % 1015,2 hPa 0,0 l/m 3,2 km/h (1 Bft) W-SW 247 0 min 0,000 mm 0,3 UV-I 95 W/m 12,5 C 23,2 C 9,7 km/h (2 Bft) 99,12 %
02.08.2016 17:25 23,0 C 52 % 1015,1 hPa 0,0 l/m 3,2 km/h (1 Bft) W 270 0 min 0,000 mm 0,3 UV-I 100 W/m 12,6 C 23,0 C 6,4 km/h (2 Bft) 100,00 %
02.08.2016 17:30 23,0 C 52 % 1015,1 hPa 0,0 l/m 3,2 km/h (1 Bft) NW 315 0 min 0,000 mm 0,3 UV-I 101 W/m 12,6 C 23,0 C 8,0 km/h (2 Bft) 100,00 %
02.08.2016 17:35 22,9 C 54 % 1015,0 hPa 0,0 l/m 3,2 km/h (1 Bft) N 360 0 min 0,000 mm 0,6 UV-I 140 W/m 13,1 C 22,9 C 8,0 km/h (2 Bft) 100,00 %
02.08.2016 17:40 22,9 C 56 % 1015,0 hPa 0,0 l/m 1,6 km/h (1 Bft) NW 315 0 min 0,000 mm 0,7 UV-I 162 W/m 13,6 C 22,9 C 6,4 km/h (2 Bft) 100,00 %
02.08.2016 17:45 22,8 C 55 % 1015,0 hPa 0,0 l/m 4,8 km/h (1 Bft) N-NW 337 0 min 0,000 mm 0,8 UV-I 167 W/m 13,3 C 22,8 C 14,5 km/h (3 Bft) 100,00 %
02.08.2016 17:50 22,6 C 56 % 1015,1 hPa 0,0 l/m 3,2 km/h (1 Bft) N-NW 337 0 min 0,000 mm 0,7 UV-I 156 W/m 13,4 C 22,6 C 11,3 km/h (2 Bft) 99,12 %
02.08.2016 17:55 22,5 C 56 % 1015,1 hPa 0,0 l/m 3,2 km/h (1 Bft) NW 315 0 min 0,000 mm 0,5 UV-I 133 W/m 13,3 C 22,5 C 12,9 km/h (3 Bft) 100,00 %
02.08.2016 18:00 22,4 C 58 % 1014,9 hPa 0,0 l/m 1,6 km/h (1 Bft) N-NW 337 0 min 0,127 mm 0,3 UV-I 116 W/m 13,7 C 22,4 C 6,4 km/h (2 Bft) 100,00 %
02.08.2016 18:05 22,3 C 57 % 1015,0 hPa 0,0 l/m 3,2 km/h (1 Bft) N-NW 337 0 min 0,000 mm 0,0 UV-I 98 W/m 13,4 C 22,3 C 8,0 km/h (2 Bft) 98,25 %
02.08.2016 18:10 22,1 C 59 % 1015,1 hPa 0,0 l/m 3,2 km/h (1 Bft) N-NW 337 0 min 0,000 mm 0,0 UV-I 78 W/m 13,7 C 22,1 C 6,4 km/h (2 Bft) 97,37 %
02.08.2016 18:15 21,9 C 60 % 1015,1 hPa 0,0 l/m 4,8 km/h (1 Bft) N-NW 337 0 min 0,000 mm 0,0 UV-I 85 W/m 13,8 C 21,9 C 8,0 km/h (2 Bft) 98,25 %
02.08.2016 18:20 21,9 C 60 % 1015,1 hPa 0,0 l/m 3,2 km/h (1 Bft) N-NW 337 0 min 0,000 mm 0,0 UV-I 95 W/m 13,8 C 21,9 C 8,0 km/h (2 Bft) 98,25 %
02.08.2016 18:25 21,9 C 61 % 1015,1 hPa 0,0 l/m 1,6 km/h (1 Bft) N-NW 337 0 min 0,000 mm 0,0 UV-I 95 W/m 14,0 C 21,9 C 4,8 km/h (1 Bft) 97,37 %
02.08.2016 18:30 21,8 C 61 % 1015,2 hPa 0,0 l/m 1,6 km/h (1 Bft) N-NW 337 0 min 0,000 mm 0,0 UV-I 72 W/m 13,9 C 21,8 C 4,8 km/h (1 Bft) 97,37 %
02.08.2016 18:35 21,7 C 62 % 1015,2 hPa 0,0 l/m 1,6 km/h (1 Bft) N-NW 337 0 min 0,000 mm 0,0 UV-I 58 W/m 14,1 C 21,7 C 4,8 km/h (1 Bft) 97,37 %
02.08.2016 18:40 21,6 C 62 % 1015,3 hPa 0,0 l/m 3,2 km/h (1 Bft) N-NW 337 0 min 0,000 mm 0,0 UV-I 35 W/m 14,0 C 21,6 C 6,4 km/h (2 Bft) 97,37 %
02.08.2016 18:45 21,5 C 63 % 1015,4 hPa 0,0 l/m 1,6 km/h (1 Bft) N-NW 337 0 min 0,000 mm 0,0 UV-I 30 W/m 14,2 C 21,5 C 4,8 km/h (1 Bft) 100,00 %
02.08.2016 18:50 21,4 C 63 % 1015,6 hPa 0,0 l/m 4,8 km/h (1 Bft) NW 315 0 min 0,000 mm 0,0 UV-I 19 W/m 14,1 C 21,4 C 11,3 km/h (2 Bft) 100,00 %
02.08.2016 18:55 21,3 C 64 % 1015,6 hPa 0,0 l/m 1,6 km/h (1 Bft) NW 315 0 min 0,000 mm 0,0 UV-I 19 W/m 14,2 C 21,3 C 8,0 km/h (2 Bft) 100,00 %
02.08.2016 19:00 21,3 C 64 % 1015,5 hPa 0,0 l/m 4,8 km/h (1 Bft) NW 315 0 min 0,051 mm 0,0 UV-I 22 W/m 14,2 C 21,3 C 14,5 km/h (3 Bft) 100,00 %
02.08.2016 19:05 21,2 C 63 % 1015,7 hPa 0,0 l/m 6,4 km/h (2 Bft) W-SW 247 0 min 0,000 mm 0,0 UV-I 15 W/m 13,9 C 21,2 C 17,7 km/h (3 Bft) 100,00 %
02.08.2016 19:10 21,1 C 64 % 1015,8 hPa 0,0 l/m 3,2 km/h (1 Bft) NW 315 0 min 0,000 mm 0,0 UV-I 17 W/m 14,0 C 21,1 C 12,9 km/h (3 Bft) 99,12 %
02.08.2016 19:15 20,8 C 67 % 1015,8 hPa 0,0 l/m 6,4 km/h (2 Bft) W-NW 292 0 min 0,000 mm 0,0 UV-I 27 W/m 14,4 C 20,8 C 17,7 km/h (3 Bft) 100,00 %
02.08.2016 19:20 20,4 C 69 % 1015,9 hPa 0,0 l/m 9,7 km/h (2 Bft) NW 315 0 min 0,000 mm 0,0 UV-I 29 W/m 14,5 C 19,2 C 22,5 km/h (4 Bft) 100,00 %
02.08.2016 19:25 19,9 C 72 % 1015,7 hPa 0,0 l/m 8,0 km/h (2 Bft) N-NW 337 0 min 0,000 mm 0,0 UV-I 27 W/m 14,7 C 19,2 C 17,7 km/h (3 Bft) 100,00 %
02.08.2016 19:30 19,6 C 74 % 1015,8 hPa 0,0 l/m 5,6 km/h (1 Bft) N 350 0 min 0,000 mm 0,0 UV-I 19 W/m 14,8 C 19,6 C 11,3 km/h (2 Bft) 95,74 %
02.08.2016 19:32 19,4 C 75 % 1015,8 hPa 0,0 l/m 5,4 km/h (1 Bft) NW 308 0 min 0,000 mm 0,0 UV-I 16 W/m 14,8 C 19,4 C 12,9 km/h (3 Bft) 98,11 %
02.08.2016 19:34 19,3 C 75 % 1015,8 hPa 0,0 l/m 5,2 km/h (1 Bft) NW 323 0 min 0,000 mm 0,0 UV-I 13 W/m 14,8 C 19,3 C 12,9 km/h (3 Bft) 97,37 %
02.08.2016 19:36 19,3 C 75 % 1015,8 hPa 0,0 l/m 4,3 km/h (1 Bft) NW 310 0 min 0,000 mm 0,0 UV-I 12 W/m 14,8 C 19,3 C 9,7 km/h (2 Bft) 95,45 %
02.08.2016 19:38 19,2 C 76 % 1015,8 hPa 0,0 l/m 2,6 km/h (1 Bft) W-NW 298 0 min 0,000 mm 0,0 UV-I 12 W/m 14,9 C 19,2 C 4,8 km/h (1 Bft) 98,11 %
02.08.2016 19:40 19,2 C 76 % 1015,9 hPa 0,0 l/m 3,3 km/h (1 Bft) NW 315 0 min 0,000 mm 0,0 UV-I 14 W/m 14,9 C 19,2 C 8,0 km/h (2 Bft) 95,74 %
02.08.2016 19:42 19,2 C 76 % 1015,9 hPa 0,0 l/m 6,2 km/h (2 Bft) NW 324 0 min 0,000 mm 0,0 UV-I 13 W/m 14,9 C 19,2 C 16,1 km/h (3 Bft) 97,56 %
02.08.2016 19:44 19,1 C 76 % 1015,9 hPa 0,0 l/m 3,6 km/h (1 Bft) N-NW 330 0 min 0,000 mm 0,0 UV-I 12 W/m 14,8 C 19,1 C 8,0 km/h (2 Bft) 96,00 %
02.08.2016 19:46 19,1 C 76 % 1015,8 hPa 0,0 l/m 3,5 km/h (1 Bft) N-NO 28 0 min 0,000 mm 0,0 UV-I 11 W/m 14,8 C 19,1 C 8,0 km/h (2 Bft) 97,56 %
02.08.2016 19:48 19,1 C 76 % 1015,8 hPa 0,0 l/m 5,8 km/h (2 Bft) N-NO 26 0 min 0,000 mm 0,0 UV-I 11 W/m 14,8 C 19,1 C 8,0 km/h (2 Bft) 98,31 %
02.08.2016 19:50 19,1 C 77 % 1015,9 hPa 0,0 l/m 3,2 km/h (1 Bft) N-NO 28 0 min 0,000 mm 0,0 UV-I 12 W/m 15,0 C 19,1 C 6,4 km/h (2 Bft) 91,67 %
02.08.2016 19:52 19,1 C 76 % 1016,0 hPa 0,0 l/m 0,9 km/h (0 Bft) N 355 0 min 0,000 mm 0,0 UV-I 12 W/m 14,8 C 19,1 C 3,2 km/h (1 Bft) 96,88 %
02.08.2016 19:54 19,1 C 77 % 1015,9 hPa 0,0 l/m 1,0 km/h (0 Bft) N 11 0 min 0,000 mm 0,0 UV-I 12 W/m 15,0 C 19,1 C 3,2 km/h (1 Bft) 97,87 %
02.08.2016 19:56 19,1 C 77 % 1016,0 hPa 0,0 l/m 0,7 km/h (0 Bft) N 355 0 min 0,000 mm 0,0 UV-I 12 W/m 15,0 C 19,1 C 3,2 km/h (1 Bft) 98,00 %
02.08.2016 19:58 19,1 C 77 % 1016,0 hPa 0,0 l/m 1,9 km/h (1 Bft) N-NO 13 0 min 0,000 mm 0,0 UV-I 11 W/m 15,0 C 19,1 C 4,8 km/h (1 Bft) 97,44 %
02.08.2016 20:00 19,1 C 77 % 1016,0 hPa 0,0 l/m 4,8 km/h (1 Bft) N-NO 26 0 min 0,025 mm 0,0 UV-I 11 W/m 15,0 C 19,1 C 9,7 km/h (2 Bft) 98,11 %
02.08.2016 20:02 19,0 C 77 % 1016,0 hPa 0,0 l/m 7,8 km/h (2 Bft) N-NO 13 0 min 0,000 mm 0,0 UV-I 9 W/m 14,9 C 18,4 C 12,9 km/h (3 Bft) 96,00 %
02.08.2016 20:04 19,0 C 76 % 1016,0 hPa 0,0 l/m 6,2 km/h (2 Bft) N-NO 21 0 min 0,000 mm 0,0 UV-I 9 W/m 14,7 C 19,0 C 12,9 km/h (3 Bft) 97,56 %
02.08.2016 20:06 18,9 C 77 % 1016,0 hPa 0,0 l/m 2,2 km/h (1 Bft) N 5 0 min 0,000 mm 0,0 UV-I 7 W/m 14,8 C 18,9 C 4,8 km/h (1 Bft) 97,78 %
02.08.2016 20:08 18,9 C 77 % 1016,0 hPa 0,0 l/m 1,8 km/h (1 Bft) N-NW 348 0 min 0,000 mm 0,0 UV-I 5 W/m 14,8 C 18,9 C 3,2 km/h (1 Bft) 98,00 %
02.08.2016 20:10 18,9 C 77 % 1016,1 hPa 0,0 l/m 1,6 km/h (1 Bft) N 355 0 min 0,000 mm 0,0 UV-I 5 W/m 14,8 C 18,9 C 3,2 km/h (1 Bft) 100,00 %
02.08.2016 20:12 18,8 C 77 % 1016,1 hPa 0,0 l/m 1,5 km/h (1 Bft) N 350 0 min 0,000 mm 0,0 UV-I 5 W/m 14,7 C 18,8 C 3,2 km/h (1 Bft) 97,87 %
02.08.2016 20:14 18,8 C 78 % 1016,1 hPa 0,0 l/m 0,9 km/h (0 Bft) N 360 0 min 0,000 mm 0,0 UV-I 1 W/m 14,9 C 18,8 C 3,2 km/h (1 Bft) 100,00 %
02.08.2016 20:16 18,8 C 78 % 1016,1 hPa 0,0 l/m 0,7 km/h (0 Bft) N 355 0 min 0,000 mm 0,0 UV-I 0 W/m 14,9 C 18,8 C 1,6 km/h (1 Bft) 98,11 %
02.08.2016 20:18 18,8 C 79 % 1016,2 hPa 0,0 l/m 0,5 km/h (0 Bft) N 355 0 min 0,000 mm 0,0 UV-I 0 W/m 15,1 C 18,8 C 1,6 km/h (1 Bft) 100,00 %
02.08.2016 20:20 18,8 C 80 % 1016,1 hPa 0,0 l/m 2,0 km/h (1 Bft) NO 34 0 min 0,000 mm 0,0 UV-I 0 W/m 15,3 C 18,8 C 4,8 km/h (1 Bft) 97,87 %
02.08.2016 20:22 18,7 C 80 % 1016,1 hPa 0,0 l/m 5,1 km/h (1 Bft) N-NO 24 0 min 0,000 mm 0,0 UV-I 0 W/m 15,2 C 18,7 C 6,4 km/h (2 Bft) 100,00 %
02.08.2016 20:24 18,7 C 81 % 1016,1 hPa 0,0 l/m 2,4 km/h (1 Bft) NO 38 0 min 0,000 mm 0,0 UV-I 0 W/m 15,4 C 18,7 C 4,8 km/h (1 Bft) 97,87 %
02.08.2016 20:26 18,6 C 81 % 1016,2 hPa 0,0 l/m 0,4 km/h (0 Bft) N-NO 26 0 min 0,000 mm 0,0 UV-I 0 W/m 15,3 C 18,6 C 3,2 km/h (1 Bft) 95,74 %
02.08.2016 20:28 18,6 C 82 % 1016,3 hPa 0,0 l/m 2,9 km/h (1 Bft) NW 312 0 min 0,000 mm 0,0 UV-I 0 W/m 15,5 C 18,6 C 4,8 km/h (1 Bft) 100,00 %
02.08.2016 20:30 18,6 C 79 % 1016,2 hPa 0,0 l/m 2,5 km/h (1 Bft) W 272 0 min 0,000 mm 0,0 UV-I 0 W/m 14,9 C 18,6 C 4,8 km/h (1 Bft) 100,00 %
02.08.2016 20:32 18,6 C 79 % 1016,3 hPa 0,0 l/m 2,8 km/h (1 Bft) W 272 0 min 0,000 mm 0,0 UV-I 0 W/m 14,9 C 18,6 C 4,8 km/h (1 Bft) 100,00 %
02.08.2016 20:34 18,7 C 78 % 1016,4 hPa 0,0 l/m 3,1 km/h (1 Bft) W-SW 240 0 min 0,000 mm 0,0 UV-I 0 W/m 14,8 C 18,7 C 4,8 km/h (1 Bft) 98,11 %
02.08.2016 20:36 18,7 C 80 % 1016,5 hPa 0,0 l/m 3,1 km/h (1 Bft) SW 215 0 min 0,000 mm 0,0 UV-I 0 W/m 15,2 C 18,7 C 6,4 km/h (2 Bft) 100,00 %
02.08.2016 20:38 18,6 C 81 % 1016,5 hPa 0,0 l/m 4,4 km/h (1 Bft) SW 214 0 min 0,000 mm 0,0 UV-I 0 W/m 15,3 C 18,6 C 6,4 km/h (2 Bft) 100,00 %
02.08.2016 20:40 18,6 C 81 % 1016,5 hPa 0,0 l/m 2,8 km/h (1 Bft) SW 222 0 min 0,000 mm 0,0 UV-I 0 W/m 15,3 C 18,6 C 4,8 km/h (1 Bft) 100,00 %
02.08.2016 20:42 18,4 C 81 % 1016,6 hPa 0,0 l/m 2,1 km/h (1 Bft) SW 221 0 min 0,000 mm 0,0 UV-I 0 W/m 15,1 C 18,4 C 4,8 km/h (1 Bft) 98,00 %
02.08.2016 20:44 18,4 C 82 % 1016,6 hPa 0,0 l/m 2,2 km/h (1 Bft) SW 221 0 min 0,000 mm 0,0 UV-I 0 W/m 15,3 C 18,4 C 4,8 km/h (1 Bft) 100,00 %
02.08.2016 20:46 18,4 C 82 % 1016,6 hPa 0,0 l/m 0,3 km/h (0 Bft) SW 221 0 min 0,000 mm 0,0 UV-I 0 W/m 15,3 C 18,4 C 3,2 km/h (1 Bft) 100,00 %
02.08.2016 20:48 18,4 C 82 % 1016,6 hPa 0,0 l/m 2,0 km/h (1 Bft) SW 221 0 min 0,000 mm 0,0 UV-I 0 W/m 15,3 C 18,4 C 3,2 km/h (1 Bft) 100,00 %
02.08.2016 20:50 18,4 C 83 % 1016,7 hPa 0,0 l/m 2,2 km/h (1 Bft) SW 221 0 min 0,000 mm 0,0 UV-I 0 W/m 15,5 C 18,4 C 3,2 km/h (1 Bft) 97,37 %
02.08.2016 20:52 18,4 C 82 % 1016,6 hPa 0,0 l/m 0,8 km/h (0 Bft) SW 223 0 min 0,000 mm 0,0 UV-I 0 W/m 15,3 C 18,4 C 3,2 km/h (1 Bft) 100,00 %
02.08.2016 20:54 18,4 C 81 % 1016,6 hPa 0,0 l/m 0,0 km/h (0 Bft) SW 223 0 min 0,000 mm 0,0 UV-I 0 W/m 15,1 C 18,4 C 0,0 km/h (0 Bft) 97,87 %
02.08.2016 20:56 18,4 C 82 % 1016,6 hPa 0,0 l/m 2,7 km/h (1 Bft) SW 223 0 min 0,000 mm 0,0 UV-I 0 W/m 15,3 C 18,4 C 4,8 km/h (1 Bft) 100,00 %
02.08.2016 20:58 18,4 C 83 % 1016,6 hPa 0,0 l/m 1,2 km/h (1 Bft) SW 223 0 min 0,000 mm 0,0 UV-I 0 W/m 15,5 C 18,4 C 3,2 km/h (1 Bft) 100,00 %
02.08.2016 21:00 18,4 C 81 % 1016,5 hPa 0,0 l/m 0,3 km/h (0 Bft) SW 223 0 min 0,000 mm 0,0 UV-I 0 W/m 15,1 C 18,4 C 1,6 km/h (1 Bft) 97,37 %
02.08.2016 21:02 18,4 C 81 % 1016,7 hPa 0,0 l/m 1,1 km/h (1 Bft) SW 223 0 min 0,000 mm 0,0 UV-I 0 W/m 15,1 C 18,4 C 3,2 km/h (1 Bft) 100,00 %
02.08.2016 21:04 18,4 C 84 % 1016,7 hPa 0,0 l/m 0,6 km/h (0 Bft) SW 223 0 min 0,000 mm 0,0 UV-I 0 W/m 15,6 C 18,4 C 3,2 km/h (1 Bft) 97,56 %
02.08.2016 21:06 18,3 C 83 % 1016,7 hPa 0,0 l/m 1,6 km/h (1 Bft) SW 223 0 min 0,000 mm 0,0 UV-I 0 W/m 15,4 C 18,3 C 3,2 km/h (1 Bft) 100,00 %
02.08.2016 21:08 18,3 C 83 % 1016,7 hPa 0,0 l/m 0,5 km/h (0 Bft) SW 223 0 min 0,000 mm 0,0 UV-I 0 W/m 15,4 C 18,3 C 1,6 km/h (1 Bft) 96,00 %
02.08.2016 21:10 18,2 C 83 % 1016,7 hPa 0,0 l/m 0,9 km/h (0 Bft) SW 223 0 min 0,000 mm 0,0 UV-I 0 W/m 15,3 C 18,2 C 3,2 km/h (1 Bft) 100,00 %
02.08.2016 21:12 18,2 C 83 % 1016,8 hPa 0,0 l/m 2,3 km/h (1 Bft) SW 223 0 min 0,000 mm 0,0 UV-I 0 W/m 15,3 C 18,2 C 4,8 km/h (1 Bft) 97,87 %
02.08.2016 21:14 18,1 C 83 % 1016,8 hPa 0,0 l/m 2,0 km/h (1 Bft) SW 223 0 min 0,000 mm 0,0 UV-I 0 W/m 15,2 C 18,1 C 3,2 km/h (1 Bft) 100,00 %
02.08.2016 21:16 18,1 C 84 % 1016,9 hPa 0,0 l/m 2,0 km/h (1 Bft) SW 223 0 min 0,000 mm 0,0 UV-I 0 W/m 15,4 C 18,1 C 3,2 km/h (1 Bft) 100,00 %
02.08.2016 21:18 18,1 C 85 % 1016,8 hPa 0,0 l/m 0,2 km/h (0 Bft) SW 223 0 min 0,000 mm 0,0 UV-I 0 W/m 15,5 C 18,1 C 1,6 km/h (1 Bft) 100,00 %
02.08.2016 21:20 18,0 C 85 % 1016,8 hPa 0,0 l/m 0,7 km/h (0 Bft) SW 223 0 min 0,000 mm 0,0 UV-I 0 W/m 15,4 C 18,0 C 3,2 km/h (1 Bft) 97,87 %
02.08.2016 21:22 17,9 C 86 % 1017,0 hPa 0,0 l/m 2,3 km/h (1 Bft) SW 223 0 min 0,000 mm 0,0 UV-I 0 W/m 15,5 C 17,9 C 4,8 km/h (1 Bft) 100,00 %
02.08.2016 21:24 17,8 C 85 % 1016,9 hPa 0,0 l/m 1,3 km/h (1 Bft) SW 223 0 min 0,000 mm 0,0 UV-I 0 W/m 15,2 C 17,8 C 3,2 km/h (1 Bft) 100,00 %
02.08.2016 21:26 17,8 C 83 % 1016,9 hPa 0,2 l/m 0,9 km/h (0 Bft) SW 223 0 min 0,000 mm 0,0 UV-I 0 W/m 14,9 C 17,8 C 3,2 km/h (1 Bft) 100,00 %
02.08.2016 21:28 17,8 C 85 % 1016,9 hPa 0,0 l/m 0,2 km/h (0 Bft) SW 223 0 min 0,000 mm 0,0 UV-I 0 W/m 15,2 C 17,8 C 1,6 km/h (1 Bft) 100,00 %
02.08.2016 21:30 17,8 C 86 % 1017,0 hPa 0,0 l/m 1,5 km/h (1 Bft) SW 223 0 min 0,000 mm 0,0 UV-I 0 W/m 15,4 C 17,8 C 3,2 km/h (1 Bft) 98,00 %
02.08.2016 21:32 17,7 C 86 % 1017,0 hPa 0,0 l/m 0,8 km/h (0 Bft) SW 223 0 min 0,000 mm 0,0 UV-I 0 W/m 15,3 C 17,7 C 3,2 km/h (1 Bft) 98,11 %
02.08.2016 21:34 17,7 C 85 % 1017,0 hPa 0,0 l/m 1,2 km/h (1 Bft) SW 223 0 min 0,000 mm 0,0 UV-I 0 W/m 15,1 C 17,7 C 3,2 km/h (1 Bft) 94,59 %
02.08.2016 21:36 17,7 C 86 % 1017,1 hPa 0,0 l/m 0,3 km/h (0 Bft) SW 223 0 min 0,000 mm 0,0 UV-I 0 W/m 15,3 C 17,7 C 1,6 km/h (1 Bft) 96,23 %
02.08.2016 21:38 17,6 C 87 % 1017,1 hPa 0,0 l/m 3,2 km/h (1 Bft) N-NW 335 0 min 0,000 mm 0,0 UV-I 0 W/m 15,4 C 17,6 C 4,8 km/h (1 Bft) 98,00 %
02.08.2016 21:40 17,5 C 88 % 1017,1 hPa 0,0 l/m 2,2 km/h (1 Bft) N 11 0 min 0,000 mm 0,0 UV-I 0 W/m 15,5 C 17,5 C 4,8 km/h (1 Bft) 95,74 %
02.08.2016 21:42 17,4 C 88 % 1017,1 hPa 0,0 l/m 2,2 km/h (1 Bft) NW 311 0 min 0,000 mm 0,0 UV-I 0 W/m 15,4 C 17,4 C 3,2 km/h (1 Bft) 97,87 %
02.08.2016 21:44 17,3 C 89 % 1017,1 hPa 0,0 l/m 1,8 km/h (1 Bft) W 277 0 min 0,000 mm 0,0 UV-I 0 W/m 15,5 C 17,3 C 3,2 km/h (1 Bft) 97,37 %
02.08.2016 21:46 17,2 C 88 % 1017,1 hPa 0,0 l/m 1,3 km/h (1 Bft) W 277 0 min 0,000 mm 0,0 UV-I 0 W/m 15,2 C 17,2 C 3,2 km/h (1 Bft) 97,87 %
02.08.2016 21:48 17,2 C 89 % 1017,1 hPa 0,0 l/m 2,7 km/h (1 Bft) W 277 0 min 0,000 mm 0,0 UV-I 0 W/m 15,4 C 17,2 C 3,2 km/h (1 Bft) 96,43 %
02.08.2016 21:50 17,2 C 89 % 1017,1 hPa 0,0 l/m 5,9 km/h (2 Bft) SW 232 0 min 0,000 mm 0,0 UV-I 0 W/m 15,4 C 17,2 C 14,5 km/h (3 Bft) 97,37 %
02.08.2016 21:52 17,2 C 88 % 1017,1 hPa 0,0 l/m 7,8 km/h (2 Bft) S-SW 211 0 min 0,000 mm 0,0 UV-I 0 W/m 15,2 C 16,5 C 14,5 km/h (3 Bft) 97,87 %
02.08.2016 21:54 17,2 C 89 % 1017,1 hPa 0,0 l/m 3,3 km/h (1 Bft) S 182 0 min 0,000 mm 0,0 UV-I 0 W/m 15,4 C 17,2 C 6,4 km/h (2 Bft) 95,24 %
02.08.2016 21:56 17,3 C 89 % 1017,1 hPa 0,0 l/m 2,8 km/h (1 Bft) S 184 0 min 0,000 mm 0,0 UV-I 0 W/m 15,5 C 17,3 C 4,8 km/h (1 Bft) 96,43 %
02.08.2016 21:58 17,3 C 89 % 1017,1 hPa 0,0 l/m 6,3 km/h (2 Bft) SW 223 0 min 0,000 mm 0,0 UV-I 0 W/m 15,5 C 17,3 C 9,7 km/h (2 Bft) 98,00 %
02.08.2016 22:00 17,3 C 89 % 1017,2 hPa 0,0 l/m 9,1 km/h (2 Bft) SW 225 0 min 0,000 mm 0,0 UV-I 0 W/m 15,5 C 16,0 C 17,7 km/h (3 Bft) 95,45 %
02.08.2016 22:02 17,3 C 88 % 1017,2 hPa 0,0 l/m 10,1 km/h (2 Bft) S-SW 200 0 min 0,000 mm 0,0 UV-I 0 W/m 15,3 C 15,6 C 14,5 km/h (3 Bft) 98,04 %
02.08.2016 22:04 17,3 C 89 % 1017,2 hPa 0,0 l/m 9,6 km/h (2 Bft) SW 223 0 min 0,000 mm 0,0 UV-I 0 W/m 15,5 C 15,8 C 14,5 km/h (3 Bft) 97,87 %
02.08.2016 22:06 17,3 C 89 % 1017,2 hPa 0,2 l/m 5,5 km/h (1 Bft) S-SW 209 0 min 0,000 mm 0,0 UV-I 0 W/m 15,5 C 17,3 C 9,7 km/h (2 Bft) 95,65 %
02.08.2016 22:08 17,2 C 89 % 1017,2 hPa 0,0 l/m 5,4 km/h (1 Bft) W-SW 242 0 min 0,000 mm 0,0 UV-I 0 W/m 15,4 C 17,2 C 8,0 km/h (2 Bft) 100,00 %
02.08.2016 22:10 17,2 C 89 % 1017,2 hPa 0,0 l/m 6,2 km/h (2 Bft) W-SW 255 0 min 0,000 mm 0,0 UV-I 0 W/m 15,4 C 17,2 C 11,3 km/h (2 Bft) 100,00 %
02.08.2016 22:12 17,1 C 90 % 1017,3 hPa 0,0 l/m 9,3 km/h (2 Bft) W-SW 252 0 min 0,000 mm 0,0 UV-I 0 W/m 15,4 C 15,7 C 19,3 km/h (3 Bft) 97,87 %
02.08.2016 22:14 17,1 C 90 % 1017,2 hPa 0,0 l/m 7,4 km/h (2 Bft) S-SW 202 0 min 0,000 mm 0,0 UV-I 0 W/m 15,4 C 16,6 C 14,5 km/h (3 Bft) 100,00 %
02.08.2016 22:16 17,1 C 90 % 1017,2 hPa 0,0 l/m 7,2 km/h (2 Bft) W-SW 244 0 min 0,000 mm 0,0 UV-I 0 W/m 15,4 C 16,7 C 12,9 km/h (3 Bft) 100,00 %
02.08.2016 22:18 17,0 C 90 % 1017,3 hPa 0,2 l/m 8,0 km/h (2 Bft) W-SW 240 0 min 0,000 mm 0,0 UV-I 0 W/m 15,3 C 16,2 C 17,7 km/h (3 Bft) 98,00 %
02.08.2016 22:20 16,9 C 90 % 1017,3 hPa 0,0 l/m 11,4 km/h (2 Bft) SW 220 0 min 0,000 mm 0,0 UV-I 0 W/m 15,2 C 14,7 C 17,7 km/h (3 Bft) 100,00 %
02.08.2016 22:22 16,9 C 90 % 1017,3 hPa 0,0 l/m 9,6 km/h (2 Bft) W-NW 301 0 min 0,000 mm 0,0 UV-I 0 W/m 15,2 C 15,4 C 16,1 km/h (3 Bft) 100,00 %
02.08.2016 22:24 16,9 C 91 % 1017,3 hPa 0,0 l/m 11,7 km/h (2 Bft) SW 234 0 min 0,000 mm 0,0 UV-I 0 W/m 15,4 C 14,6 C 17,7 km/h (3 Bft) 97,87 %
02.08.2016 22:26 16,9 C 91 % 1017,4 hPa 0,0 l/m 11,4 km/h (2 Bft) W-SW 250 0 min 0,000 mm 0,0 UV-I 0 W/m 15,4 C 14,7 C 16,1 km/h (3 Bft) 100,00 %
02.08.2016 22:28 16,9 C 91 % 1017,4 hPa 0,0 l/m 9,9 km/h (2 Bft) SW 215 0 min 0,000 mm 0,0 UV-I 0 W/m 15,4 C 15,3 C 14,5 km/h (3 Bft) 100,00 %
02.08.2016 22:30 16,9 C 91 % 1017,4 hPa 0,0 l/m 10,5 km/h (2 Bft) S-SW 208 0 min 0,000 mm 0,0 UV-I 0 W/m 15,4 C 15,0 C 16,1 km/h (3 Bft) 100,00 %
02.08.2016 22:32 16,9 C 91 % 1017,4 hPa 0,0 l/m 10,0 km/h (2 Bft) S-SW 213 0 min 0,000 mm 0,0 UV-I 0 W/m 15,4 C 15,2 C 14,5 km/h (3 Bft) 100,00 %
02.08.2016 22:34 16,9 C 91 % 1017,4 hPa 0,0 l/m 9,8 km/h (2 Bft) SW 218 0 min 0,000 mm 0,0 UV-I 0 W/m 15,4 C 15,3 C 16,1 km/h (3 Bft) 97,87 %
02.08.2016 22:36 16,9 C 91 % 1017,4 hPa 0,0 l/m 11,3 km/h (2 Bft) SW 225 0 min 0,000 mm 0,0 UV-I 0 W/m 15,4 C 14,7 C 17,7 km/h (3 Bft) 100,00 %
02.08.2016 22:38 16,9 C 91 % 1017,4 hPa 0,2 l/m 10,3 km/h (2 Bft) W-SW 240 0 min 0,000 mm 0,0 UV-I 0 W/m 15,4 C 15,1 C 12,9 km/h (3 Bft) 100,00 %
02.08.2016 22:40 16,9 C 91 % 1017,4 hPa 0,2 l/m 10,0 km/h (2 Bft) W-SW 248 0 min 0,000 mm 0,0 UV-I 0 W/m 15,4 C 15,2 C 16,1 km/h (3 Bft) 100,00 %
02.08.2016 22:42 16,9 C 92 % 1017,3 hPa 0,0 l/m 9,8 km/h (2 Bft) W 261 0 min 0,000 mm 0,0 UV-I 0 W/m 15,6 C 15,3 C 16,1 km/h (3 Bft) 100,00 %
02.08.2016 22:44 16,9 C 92 % 1017,4 hPa 0,2 l/m 13,2 km/h (3 Bft) SW 220 0 min 0,000 mm 0,0 UV-I 0 W/m 15,6 C 14,1 C 17,7 km/h (3 Bft) 98,00 %
02.08.2016 22:46 16,8 C 92 % 1017,4 hPa 0,0 l/m 10,2 km/h (2 Bft) W-SW 242 0 min 0,000 mm 0,0 UV-I 0 W/m 15,5 C 15,0 C 16,1 km/h (3 Bft) 100,00 %
02.08.2016 22:48 16,8 C 92 % 1017,4 hPa 0,2 l/m 12,3 km/h (3 Bft) SW 233 0 min 0,000 mm 0,0 UV-I 0 W/m 15,5 C 14,2 C 19,3 km/h (3 Bft) 100,00 %
02.08.2016 22:50 16,8 C 92 % 1017,3 hPa 0,0 l/m 9,5 km/h (2 Bft) W-SW 242 0 min 0,000 mm 0,0 UV-I 0 W/m 15,5 C 15,3 C 14,5 km/h (3 Bft) 100,00 %
02.08.2016 22:52 16,8 C 92 % 1017,3 hPa 0,0 l/m 14,0 km/h (3 Bft) S-SW 208 0 min 0,000 mm 0,0 UV-I 0 W/m 15,5 C 13,7 C 22,5 km/h (4 Bft) 95,74 %
02.08.2016 22:54 16,7 C 92 % 1017,3 hPa 0,0 l/m 10,0 km/h (2 Bft) SW 229 0 min 0,000 mm 0,0 UV-I 0 W/m 15,4 C 15,0 C 17,7 km/h (3 Bft) 100,00 %
02.08.2016 22:56 16,7 C 93 % 1017,3 hPa 0,0 l/m 9,0 km/h (2 Bft) S 175 0 min 0,000 mm 0,0 UV-I 0 W/m 15,6 C 15,4 C 16,1 km/h (3 Bft) 100,00 %
02.08.2016 22:58 16,7 C 93 % 1017,4 hPa 0,0 l/m 9,0 km/h (2 Bft) SW 223 0 min 0,000 mm 0,0 UV-I 0 W/m 15,6 C 15,4 C 16,1 km/h (3 Bft) 97,73 %
02.08.2016 23:00 16,7 C 93 % 1017,3 hPa 0,0 l/m 7,8 km/h (2 Bft) SW 217 0 min 0,000 mm 0,0 UV-I 0 W/m 15,6 C 16,0 C 14,5 km/h (3 Bft) 98,11 %
02.08.2016 23:02 16,7 C 93 % 1017,4 hPa 0,0 l/m 9,0 km/h (2 Bft) W-SW 237 0 min 0,025 mm 0,0 UV-I 0 W/m 15,6 C 15,4 C 14,5 km/h (3 Bft) 100,00 %
02.08.2016 23:04 16,7 C 93 % 1017,3 hPa 0,0 l/m 9,2 km/h (2 Bft) W-SW 246 0 min 0,000 mm 0,0 UV-I 0 W/m 15,6 C 15,3 C 14,5 km/h (3 Bft) 97,87 %
02.08.2016 23:06 16,7 C 93 % 1017,3 hPa 0,0 l/m 7,4 km/h (2 Bft) S-SW 211 0 min 0,000 mm 0,0 UV-I 0 W/m 15,6 C 16,2 C 14,5 km/h (3 Bft) 100,00 %
02.08.2016 23:08 16,7 C 93 % 1017,4 hPa 0,2 l/m 7,0 km/h (2 Bft) S-SW 196 0 min 0,000 mm 0,0 UV-I 0 W/m 15,6 C 16,4 C 11,3 km/h (2 Bft) 100,00 %
02.08.2016 23:10 16,7 C 93 % 1017,4 hPa 0,0 l/m 8,6 km/h (2 Bft) S-SW 208 0 min 0,000 mm 0,0 UV-I 0 W/m 15,6 C 15,6 C 12,9 km/h (3 Bft) 100,00 %
02.08.2016 23:12 16,6 C 93 % 1017,3 hPa 0,0 l/m 7,2 km/h (2 Bft) SW 221 0 min 0,000 mm 0,0 UV-I 0 W/m 15,5 C 16,2 C 11,3 km/h (2 Bft) 97,56 %
02.08.2016 23:14 16,6 C 94 % 1017,4 hPa 0,0 l/m 8,0 km/h (2 Bft) SW 217 0 min 0,000 mm 0,0 UV-I 0 W/m 15,6 C 15,8 C 11,3 km/h (2 Bft) 100,00 %
02.08.2016 23:16 16,6 C 94 % 1017,4 hPa 0,0 l/m 10,3 km/h (2 Bft) S-SW 212 0 min 0,000 mm 0,0 UV-I 0 W/m 15,6 C 14,8 C 17,7 km/h (3 Bft) 100,00 %
02.08.2016 23:18 16,6 C 94 % 1017,3 hPa 0,2 l/m 7,7 km/h (2 Bft) SW 232 0 min 0,000 mm 0,0 UV-I 0 W/m 15,6 C 15,9 C 12,9 km/h (3 Bft) 100,00 %
02.08.2016 23:20 16,6 C 94 % 1017,3 hPa 0,0 l/m 8,0 km/h (2 Bft) S-SW 211 0 min 0,000 mm 0,0 UV-I 0 W/m 15,6 C 15,8 C 12,9 km/h (3 Bft) 100,00 %
02.08.2016 23:22 16,6 C 94 % 1017,4 hPa 0,0 l/m 12,0 km/h (2 Bft) SW 232 0 min 0,000 mm 0,0 UV-I 0 W/m 15,6 C 14,1 C 17,7 km/h (3 Bft) 100,00 %
02.08.2016 23:24 16,6 C 94 % 1017,4 hPa 0,0 l/m 11,9 km/h (2 Bft) SW 229 0 min 0,000 mm 0,0 UV-I 0 W/m 15,6 C 14,2 C 17,7 km/h (3 Bft) 100,00 %
02.08.2016 23:26 16,6 C 94 % 1017,3 hPa 0,0 l/m 11,5 km/h (2 Bft) S-SW 211 0 min 0,000 mm 0,0 UV-I 0 W/m 15,6 C 14,3 C 20,9 km/h (4 Bft) 100,00 %
02.08.2016 23:28 16,6 C 94 % 1017,4 hPa 0,0 l/m 11,7 km/h (2 Bft) W-SW 242 0 min 0,000 mm 0,0 UV-I 0 W/m 15,6 C 14,2 C 16,1 km/h (3 Bft) 100,00 %
02.08.2016 23:30 16,6 C 94 % 1017,4 hPa 0,0 l/m 12,6 km/h (3 Bft) S 180 0 min 0,000 mm 0,0 UV-I 0 W/m 15,6 C 13,9 C 19,3 km/h (3 Bft) 98,00 %
02.08.2016 23:32 16,6 C 94 % 1017,4 hPa 0,0 l/m 10,0 km/h (2 Bft) S-SW 198 0 min 0,000 mm 0,0 UV-I 0 W/m 15,6 C 14,9 C 22,5 km/h (4 Bft) 93,62 %
02.08.2016 23:34 16,6 C 94 % 1017,4 hPa 0,0 l/m 15,4 km/h (3 Bft) SW 227 0 min 0,000 mm 0,0 UV-I 0 W/m 15,6 C 13,0 C 24,1 km/h (4 Bft) 96,00 %
02.08.2016 23:36 16,6 C 94 % 1017,3 hPa 0,0 l/m 12,3 km/h (3 Bft) W-SW 240 0 min 0,000 mm 0,0 UV-I 0 W/m 15,6 C 14,0 C 17,7 km/h (3 Bft) 92,00 %
02.08.2016 23:38 16,6 C 94 % 1017,3 hPa 0,0 l/m 10,2 km/h (2 Bft) SW 228 0 min 0,000 mm 0,0 UV-I 0 W/m 15,6 C 14,8 C 16,1 km/h (3 Bft) 97,87 %
02.08.2016 23:40 16,6 C 94 % 1017,3 hPa 0,0 l/m 9,4 km/h (2 Bft) SW 215 0 min 0,000 mm 0,0 UV-I 0 W/m 15,6 C 15,1 C 19,3 km/h (3 Bft) 97,37 %
02.08.2016 23:42 16,6 C 94 % 1017,4 hPa 0,0 l/m 11,8 km/h (2 Bft) W-SW 246 0 min 0,000 mm 0,0 UV-I 0 W/m 15,6 C 14,2 C 14,5 km/h (3 Bft) 98,11 %
02.08.2016 23:44 16,6 C 94 % 1017,4 hPa 0,0 l/m 13,1 km/h (3 Bft) W-SW 244 0 min 0,000 mm 0,0 UV-I 0 W/m 15,6 C 13,7 C 17,7 km/h (3 Bft) 97,73 %
02.08.2016 23:46 16,6 C 94 % 1017,4 hPa 0,0 l/m 10,7 km/h (2 Bft) S-SW 213 0 min 0,000 mm 0,0 UV-I 0 W/m 15,6 C 14,6 C 16,1 km/h (3 Bft) 98,11 %
02.08.2016 23:48 16,6 C 94 % 1017,4 hPa 0,0 l/m 10,4 km/h (2 Bft) SW 227 0 min 0,000 mm 0,0 UV-I 0 W/m 15,6 C 14,7 C 16,1 km/h (3 Bft) 97,87 %
02.08.2016 23:50 16,6 C 94 % 1017,4 hPa 0,0 l/m 13,8 km/h (3 Bft) W-SW 238 0 min 0,000 mm 0,0 UV-I 0 W/m 15,6 C 13,5 C 20,9 km/h (4 Bft) 97,44 %
02.08.2016 23:52 16,6 C 94 % 1017,4 hPa 0,0 l/m 14,5 km/h (3 Bft) SW 231 0 min 0,000 mm 0,0 UV-I 0 W/m 15,6 C 13,3 C 22,5 km/h (4 Bft) 98,00 %
02.08.2016 23:54 16,6 C 94 % 1017,4 hPa 0,0 l/m 17,0 km/h (3 Bft) SW 235 0 min 0,000 mm 0,0 UV-I 0 W/m 15,6 C 12,6 C 24,1 km/h (4 Bft) 97,56 %
02.08.2016 23:56 16,6 C 94 % 1017,4 hPa 0,0 l/m 15,6 km/h (3 Bft) W 261 0 min 0,000 mm 0,0 UV-I 0 W/m 15,6 C 13,0 C 29,0 km/h (5 Bft) 96,43 %
02.08.2016 23:58 16,6 C 93 % 1017,4 hPa 0,0 l/m 17,6 km/h (3 Bft) W-SW 237 0 min 0,000 mm 0,0 UV-I 0 W/m 15,5 C 12,4 C 22,5 km/h (4 Bft) 97,87 %
_ Min-Zeit 05:44 14:10 18:00 - 03:18 - - - - - - 05:36 05:36 03:18 04:10
Minimum _ 11,5 C 44 % 1014,9 hPa - 0,0 km/h (0 Bft) - - - - - - 10,5 C 11,6 C 0,0 km/h (0 Bft) 91,30 %
_ Max-Zeit 15:12 05:38 00:16 21:26 23:58 - - 16:40 12:02 13:24 13:24 21:04 15:10 23:56 00:12
Maximum _ 25,1 C 94 % 1018,3 hPa 0,2 l/m 17,6 km/h
W-SW (3 Bft)
- - 5 min 0,457 mm 6,6 UV-I 1154 W/m 15,6 C 24,4 C 29,0 km/h
SW (5 Bft)
100,00 %
Durchschnitt _ 18,2 C 74 % 1017,0 hPa #1,8 l/m 4,0 km/h (1 Bft) S-SW - #6:47 h #3,327 mm 2,9 UV-I 336 W/m 13,1 C 18,0 C 7,4 km/h (2 Bft) 98,61 %